GFSNIL_prec_precacc12_015.txt.gz
Total_Precipitation_Accumulation
0.00 0.00 0.00 0.00 0.00 0.00 0.00 0.00 0.00 0.00 0.00 0.00 0.00 0.00 0.00 0.01 0.01 0.01 0.01 0.00 0.00 0.00
0.00 0.00 0.00 0.00 0.00 0.00 0.00 0.00 0.00 0.00 0.00 0.00 0.00 0.02 0.03 0.01 0.00 0.01 0.00 0.00 0.00 0.00
0.00 0.00 0.00 0.00 0.00 0.00 0.00 0.00 0.00 0.00 0.00 0.00 0.01 0.00 0.00 0.00 0.00 0.00 0.00 0.00 0.00 0.00
0.00 0.00 0.00 0.00 0.00 0.00 0.00 0.00 0.00 0.00 0.00 0.00 0.00 0.00 0.01 0.00 0.00 0.00 0.00 0.00 0.00 0.00
0.00 0.00 0.00 0.00 0.00 0.00 0.00 0.00 0.00 0.00 0.00 0.00 0.00 0.00 0.00 0.00 0.00 0.00 0.00 0.01 0.00 0.00
0.00 0.00 0.00 0.00 0.00 0.00 0.00 0.00 0.00 0.00 0.00 0.00 0.00 0.00 0.00 0.00 0.00 0.00 0.01 0.00 0.00 0.00
0.00 0.00 0.00 0.00 0.00 0.00 0.00 0.00 0.00 0.00 0.00 0.00 0.00 0.00 0.00 0.00 0.00 0.00 0.00 0.00 0.00 0.00
0.00 0.00 0.00 0.00 0.00 0.00 0.00 0.00 0.00 0.00 0.00 0.00 0.00 0.00 0.00 0.00 0.00 0.00 0.00 0.00 0.00 0.00
0.00 0.00 0.00 0.00 0.00 0.00 0.00 0.00 0.00 0.00 0.01 0.01 0.01 0.00 0.00 0.00 0.00 0.00 0.00 0.00 0.00 0.00
0.00 0.00 0.00 0.00 0.00 0.00 0.00 0.00 0.00 0.01 0.01 0.01 0.02 0.00 0.00 0.00 0.00 0.00 0.00 0.00 0.00 0.00
0.00 0.00 0.00 0.00 0.00 0.00 0.00 0.00 0.00 0.00 0.00 0.00 0.00 0.00 0.00 0.00 0.00 0.00 0.00 0.00 0.00 0.00
0.00 0.00 0.00 0.00 0.00 0.00 0.00 0.00 0.00 0.00 0.00 0.00 0.00 0.00 0.00 0.00 0.00 0.00 0.00 0.00 0.00 0.00
0.00 0.01 0.00 0.00 0.00 0.00 0.00 0.00 0.00 0.00 0.00 0.00 0.00 0.00 0.00 0.00 0.00 0.00 0.00 0.00 0.00 0.00
0.02 0.01 0.01 0.00 0.00 0.00 0.00 0.00 0.00 0.00 0.00 0.00 0.00 0.00 0.00 0.00 0.00 0.00 0.00 0.00 0.00 0.00

GFSNIL_prec_precacc12_018.txt.gz
Total_Precipitation_Accumulation
0.00 0.00 0.00 0.00 0.00 0.00 0.00 0.00 0.00 0.00 0.00 0.00 0.00 0.00 0.00 0.01 0.01 0.01 0.01 0.00 0.00 0.00
0.00 0.00 0.00 0.00 0.00 0.00 0.00 0.00 0.00 0.00 0.00 0.00 0.00 0.02 0.03 0.01 0.00 0.01 0.00 0.00 0.00 0.00
0.00 0.00 0.00 0.00 0.00 0.00 0.00 0.00 0.00 0.00 0.00 0.00 0.01 0.00 0.00 0.00 0.00 0.00 0.00 0.00 0.00 0.00
0.00 0.00 0.00 0.00 0.00 0.00 0.00 0.00 0.00 0.00 0.00 0.00 0.00 0.00 0.00 0.00 0.00 0.00 0.00 0.00 0.00 0.00
0.00 0.00 0.00 0.00 0.00 0.00 0.00 0.00 0.00 0.00 0.00 0.00 0.00 0.00 0.00 0.00 0.00 0.00 0.00 0.01 0.00 0.00
0.00 0.00 0.00 0.00 0.00 0.00 0.00 0.00 0.00 0.00 0.00 0.00 0.00 0.00 0.00 0.00 0.00 0.00 0.01 0.00 0.00 0.00
0.00 0.00 0.00 0.00 0.00 0.00 0.00 0.00 0.00 0.00 0.00 0.00 0.00 0.00 0.00 0.00 0.00 0.00 0.00 0.00 0.00 0.00
0.00 0.00 0.00 0.00 0.00 0.00 0.00 0.00 0.00 0.00 0.00 0.00 0.00 0.00 0.00 0.00 0.00 0.00 0.00 0.00 0.00 0.00
0.00 0.00 0.00 0.00 0.00 0.00 0.00 0.00 0.00 0.00 0.01 0.01 0.01 0.00 0.00 0.00 0.00 0.00 0.00 0.00 0.00 0.00
0.00 0.00 0.00 0.00 0.00 0.00 0.00 0.00 0.00 0.00 0.01 0.01 0.02 0.00 0.00 0.00 0.00 0.00 0.00 0.00 0.00 0.00
0.00 0.00 0.00 0.00 0.01 0.01 0.00 0.00 0.00 0.00 0.00 0.00 0.00 0.00 0.00 0.00 0.00 0.00 0.00 0.00 0.00 0.00
0.00 0.00 0.01 0.02 0.03 0.01 0.00 0.00 0.00 0.00 0.00 0.00 0.00 0.00 0.00 0.00 0.00 0.00 0.00 0.00 0.00 0.00
0.00 0.01 0.03 0.04 0.03 0.01 0.00 0.00 0.00 0.00 0.00 0.00 0.00 0.00 0.00 0.00 0.00 0.00 0.00 0.00 0.00 0.00
0.05 0.08 0.07 0.03 0.00 0.00 0.00 0.00 0.00 0.00 0.00 0.00 0.00 0.00 0.00 0.00 0.00 0.00 0.00 0.00 0.00 0.00

GFSNIL_prec_precacc12_021.txt.gz
Total_Precipitation_Accumulation
0.01 0.00 0.00 0.00 0.00 0.00 0.00 0.00 0.00 0.00 0.00 0.00 0.00 0.00 0.00 0.00 0.00 0.01 0.01 0.00 0.00 0.00
0.01 0.01 0.00 0.00 0.00 0.00 0.00 0.00 0.00 0.00 0.00 0.00 0.00 0.00 0.01 0.01 0.00 0.01 0.00 0.00 0.00 0.00
0.02 0.00 0.00 0.00 0.00 0.00 0.00 0.00 0.00 0.00 0.00 0.00 0.00 0.00 0.00 0.00 0.00 0.00 0.00 0.00 0.00 0.00
0.01 0.00 0.00 0.00 0.00 0.00 0.00 0.00 0.00 0.00 0.00 0.00 0.00 0.00 0.00 0.00 0.00 0.00 0.00 0.00 0.00 0.00
0.01 0.00 0.00 0.00 0.00 0.00 0.00 0.00 0.00 0.00 0.00 0.00 0.00 0.00 0.00 0.00 0.00 0.00 0.00 0.01 0.00 0.00
0.00 0.00 0.00 0.00 0.00 0.00 0.00 0.00 0.00 0.00 0.00 0.00 0.00 0.00 0.00 0.00 0.00 0.00 0.01 0.00 0.00 0.00
0.00 0.00 0.00 0.00 0.00 0.00 0.00 0.00 0.00 0.00 0.00 0.00 0.00 0.00 0.00 0.00 0.00 0.00 0.00 0.00 0.00 0.00
0.00 0.00 0.00 0.00 0.00 0.00 0.00 0.00 0.00 0.00 0.00 0.00 0.00 0.00 0.00 0.00 0.00 0.00 0.00 0.00 0.00 0.00
0.00 0.00 0.00 0.00 0.00 0.00 0.00 0.00 0.00 0.00 0.00 0.00 0.01 0.00 0.00 0.00 0.00 0.00 0.00 0.00 0.00 0.00
0.00 0.00 0.00 0.00 0.00 0.00 0.00 0.01 0.01 0.00 0.00 0.00 0.00 0.00 0.00 0.00 0.00 0.00 0.00 0.00 0.00 0.00
0.00 0.00 0.00 0.00 0.01 0.02 0.03 0.03 0.02 0.00 0.00 0.00 0.00 0.00 0.00 0.00 0.00 0.00 0.00 0.00 0.00 0.00
0.00 0.00 0.01 0.03 0.05 0.08 0.06 0.02 0.00 0.00 0.00 0.00 0.00 0.00 0.00 0.00 0.00 0.00 0.00 0.00 0.00 0.00
0.01 0.03 0.08 0.14 0.12 0.05 0.01 0.00 0.00 0.00 0.00 0.00 0.00 0.00 0.00 0.00 0.00 0.00 0.00 0.00 0.00 0.00
0.08 0.13 0.13 0.09 0.03 0.01 0.00 0.00 0.00 0.00 0.00 0.00 0.00 0.00 0.00 0.00 0.00 0.00 0.00 0.00 0.00 0.00

GFSNIL_prec_precacc12_024.txt.gz
Total_Precipitation_Accumulation
0.02 0.01 0.01 0.01 0.00 0.00 0.00 0.00 0.00 0.00 0.00 0.00 0.00 0.00 0.00 0.00 0.00 0.00 0.00 0.00 0.00 0.00
0.08 0.06 0.05 0.04 0.01 0.00 0.00 0.00 0.00 0.00 0.00 0.00 0.00 0.00 0.00 0.00 0.00 0.00 0.00 0.00 0.00 0.00
0.09 0.08 0.06 0.02 0.01 0.00 0.00 0.00 0.00 0.00 0.00 0.00 0.00 0.00 0.00 0.00 0.00 0.00 0.00 0.00 0.00 0.00
0.06 0.04 0.03 0.02 0.00 0.00 0.00 0.00 0.00 0.00 0.00 0.00 0.00 0.00 0.00 0.00 0.00 0.00 0.00 0.00 0.00 0.00
0.05 0.02 0.01 0.01 0.00 0.00 0.00 0.00 0.00 0.00 0.00 0.00 0.00 0.00 0.00 0.00 0.00 0.00 0.00 0.00 0.00 0.00
0.04 0.02 0.01 0.00 0.00 0.00 0.00 0.00 0.00 0.00 0.00 0.00 0.00 0.00 0.00 0.00 0.00 0.00 0.00 0.00 0.00 0.00
0.04 0.01 0.00 0.00 0.00 0.00 0.00 0.00 0.00 0.00 0.00 0.00 0.00 0.00 0.00 0.00 0.00 0.00 0.00 0.00 0.00 0.00
0.01 0.00 0.00 0.00 0.00 0.00 0.00 0.00 0.00 0.00 0.00 0.01 0.02 0.00 0.00 0.00 0.00 0.00 0.00 0.00 0.00 0.00
0.00 0.00 0.00 0.00 0.00 0.00 0.00 0.00 0.00 0.00 0.02 0.03 0.01 0.00 0.00 0.00 0.00 0.00 0.00 0.00 0.00 0.00
0.00 0.00 0.00 0.00 0.00 0.00 0.00 0.01 0.02 0.05 0.04 0.00 0.00 0.00 0.00 0.00 0.00 0.00 0.00 0.00 0.00 0.00
0.00 0.00 0.01 0.00 0.01 0.02 0.04 0.07 0.09 0.06 0.01 0.00 0.00 0.00 0.00 0.00 0.00 0.00 0.00 0.00 0.00 0.00
0.01 0.01 0.01 0.03 0.08 0.14 0.17 0.10 0.03 0.01 0.00 0.00 0.00 0.00 0.00 0.00 0.00 0.00 0.00 0.00 0.00 0.00
0.00 0.03 0.09 0.17 0.20 0.13 0.06 0.02 0.01 0.00 0.00 0.00 0.00 0.00 0.00 0.00 0.00 0.00 0.00 0.00 0.00 0.00
0.07 0.14 0.16 0.13 0.06 0.02 0.01 0.01 0.00 0.00 0.00 0.00 0.00 0.00 0.00 0.00 0.00 0.00 0.00 0.00 0.00 0.00

GFSNIL_prec_precacc12_027.txt.gz
Total_Precipitation_Accumulation
0.14 0.12 0.09 0.06 0.03 0.02 0.02 0.01 0.01 0.00 0.00 0.00 0.00 0.00 0.00 0.00 0.00 0.00 0.00 0.00 0.00 0.00
0.16 0.15 0.13 0.10 0.07 0.05 0.02 0.01 0.00 0.00 0.00 0.01 0.01 0.00 0.00 0.00 0.00 0.00 0.00 0.00 0.00 0.00
0.22 0.19 0.15 0.08 0.05 0.03 0.01 0.01 0.00 0.00 0.01 0.01 0.00 0.00 0.00 0.00 0.00 0.00 0.00 0.00 0.00 0.00
0.20 0.13 0.09 0.07 0.04 0.02 0.01 0.01 0.00 0.00 0.00 0.00 0.00 0.00 0.00 0.00 0.00 0.00 0.00 0.00 0.00 0.00
0.15 0.10 0.08 0.06 0.04 0.02 0.01 0.00 0.00 0.00 0.00 0.00 0.00 0.00 0.00 0.00 0.00 0.00 0.00 0.00 0.00 0.00
0.09 0.09 0.07 0.04 0.02 0.00 0.00 0.00 0.00 0.00 0.00 0.00 0.00 0.00 0.00 0.00 0.00 0.00 0.00 0.00 0.00 0.00
0.07 0.05 0.02 0.01 0.00 0.00 0.00 0.00 0.00 0.00 0.00 0.00 0.00 0.01 0.03 0.02 0.00 0.00 0.00 0.00 0.00 0.00
0.02 0.01 0.00 0.00 0.00 0.00 0.00 0.00 0.00 0.00 0.00 0.01 0.04 0.07 0.05 0.00 0.00 0.00 0.00 0.00 0.00 0.00
0.00 0.00 0.00 0.00 0.00 0.00 0.00 0.00 0.00 0.01 0.03 0.07 0.09 0.04 0.00 0.00 0.00 0.00 0.00 0.00 0.00 0.00
0.00 0.00 0.00 0.00 0.00 0.00 0.00 0.01 0.02 0.06 0.11 0.10 0.03 0.00 0.00 0.00 0.00 0.00 0.00 0.00 0.00 0.00
0.00 0.00 0.00 0.00 0.01 0.02 0.05 0.11 0.15 0.16 0.10 0.02 0.00 0.01 0.01 0.00 0.00 0.00 0.00 0.00 0.00 0.00
0.00 0.00 0.00 0.03 0.09 0.16 0.21 0.18 0.12 0.04 0.01 0.02 0.01 0.01 0.00 0.00 0.00 0.00 0.00 0.00 0.00 0.00
0.00 0.02 0.08 0.18 0.21 0.15 0.07 0.03 0.03 0.04 0.03 0.02 0.00 0.00 0.00 0.00 0.00 0.00 0.00 0.00 0.00 0.00
0.06 0.12 0.16 0.13 0.06 0.03 0.02 0.02 0.01 0.00 0.00 0.00 0.00 0.00 0.00 0.00 0.00 0.00 0.00 0.00 0.00 0.00

GFSNIL_prec_precacc12_030.txt.gz
Total_Precipitation_Accumulation
0.18 0.20 0.17 0.16 0.12 0.08 0.06 0.04 0.03 0.04 0.03 0.00 0.00 0.01 0.03 0.03 0.00 0.00 0.00 0.00 0.00 0.00
0.21 0.20 0.21 0.16 0.11 0.07 0.04 0.02 0.01 0.02 0.00 0.01 0.03 0.05 0.05 0.01 0.00 0.00 0.00 0.00 0.00 0.00
0.28 0.29 0.24 0.15 0.10 0.05 0.03 0.01 0.00 0.00 0.03 0.08 0.06 0.04 0.01 0.00 0.00 0.00 0.00 0.00 0.00 0.00
0.29 0.25 0.18 0.15 0.11 0.06 0.02 0.02 0.05 0.09 0.10 0.04 0.00 0.00 0.00 0.00 0.00 0.00 0.00 0.00 0.00 0.00
0.19 0.17 0.14 0.12 0.09 0.06 0.04 0.04 0.03 0.01 0.00 0.00 0.00 0.00 0.00 0.00 0.00 0.01 0.01 0.00 0.00 0.00
0.11 0.11 0.09 0.07 0.04 0.02 0.02 0.02 0.01 0.00 0.00 0.00 0.00 0.00 0.00 0.00 0.05 0.05 0.00 0.00 0.00 0.00
0.11 0.07 0.06 0.03 0.01 0.00 0.00 0.00 0.00 0.00 0.00 0.00 0.00 0.01 0.06 0.09 0.04 0.00 0.00 0.00 0.00 0.00
0.02 0.01 0.00 0.00 0.00 0.00 0.00 0.00 0.00 0.00 0.00 0.01 0.05 0.10 0.10 0.04 0.01 0.00 0.00 0.00 0.00 0.00
0.00 0.00 0.00 0.00 0.00 0.00 0.00 0.00 0.00 0.01 0.04 0.08 0.11 0.11 0.09 0.02 0.00 0.00 0.00 0.00 0.00 0.00
0.00 0.00 0.00 0.00 0.00 0.00 0.00 0.01 0.03 0.07 0.12 0.14 0.10 0.05 0.02 0.00 0.00 0.00 0.00 0.00 0.00 0.00
0.00 0.00 0.00 0.00 0.00 0.01 0.04 0.11 0.15 0.17 0.13 0.05 0.01 0.02 0.04 0.02 0.00 0.00 0.00 0.00 0.00 0.00
0.00 0.00 0.00 0.01 0.06 0.16 0.21 0.18 0.12 0.04 0.01 0.02 0.02 0.04 0.02 0.01 0.00 0.00 0.00 0.00 0.00 0.00
0.00 0.02 0.06 0.14 0.18 0.14 0.07 0.03 0.03 0.04 0.04 0.04 0.01 0.00 0.00 0.00 0.00 0.00 0.00 0.00 0.00 0.00
0.03 0.06 0.09 0.10 0.06 0.03 0.02 0.02 0.01 0.00 0.00 0.00 0.00 0.00 0.00 0.00 0.00 0.00 0.00 0.00 0.00 0.00

GFSNIL_prec_precacc12_033.txt.gz
Total_Precipitation_Accumulation
0.17 0.19 0.18 0.19 0.17 0.12 0.12 0.17 0.16 0.10 0.07 0.04 0.02 0.02 0.03 0.05 0.03 0.02 0.01 0.00 0.00 0.00
0.20 0.19 0.23 0.22 0.16 0.09 0.05 0.03 0.02 0.01 0.01 0.02 0.04 0.06 0.09 0.08 0.03 0.01 0.00 0.00 0.00 0.00
0.26 0.30 0.28 0.20 0.12 0.07 0.04 0.01 0.00 0.00 0.03 0.09 0.14 0.15 0.10 0.04 0.01 0.00 0.00 0.00 0.00 0.00
0.29 0.31 0.26 0.19 0.12 0.08 0.04 0.03 0.05 0.10 0.12 0.09 0.05 0.02 0.00 0.00 0.00 0.00 0.00 0.00 0.01 0.00
0.21 0.20 0.21 0.19 0.12 0.09 0.06 0.04 0.03 0.01 0.01 0.00 0.00 0.00 0.00 0.01 0.00 0.01 0.05 0.04 0.01 0.00
0.12 0.12 0.11 0.10 0.08 0.05 0.03 0.02 0.01 0.01 0.02 0.02 0.01 0.01 0.01 0.01 0.05 0.08 0.04 0.01 0.00 0.00
0.13 0.08 0.07 0.04 0.01 0.00 0.00 0.00 0.00 0.00 0.01 0.01 0.00 0.01 0.06 0.09 0.07 0.06 0.03 0.00 0.00 0.00
0.03 0.01 0.00 0.00 0.00 0.00 0.00 0.00 0.00 0.00 0.00 0.01 0.05 0.11 0.11 0.12 0.11 0.03 0.00 0.00 0.00 0.00
0.00 0.00 0.00 0.00 0.00 0.00 0.00 0.00 0.00 0.01 0.04 0.08 0.12 0.13 0.12 0.05 0.01 0.00 0.00 0.00 0.00 0.00
0.00 0.00 0.00 0.00 0.00 0.00 0.00 0.00 0.02 0.06 0.12 0.14 0.10 0.06 0.02 0.01 0.00 0.01 0.00 0.00 0.00 0.00
0.00 0.00 0.00 0.00 0.00 0.00 0.01 0.08 0.14 0.16 0.13 0.05 0.01 0.02 0.04 0.03 0.01 0.01 0.00 0.00 0.00 0.00
0.00 0.00 0.00 0.00 0.03 0.09 0.15 0.16 0.12 0.04 0.01 0.02 0.02 0.04 0.03 0.02 0.00 0.00 0.00 0.00 0.00 0.00
0.00 0.00 0.01 0.05 0.10 0.10 0.06 0.03 0.03 0.04 0.04 0.05 0.02 0.01 0.00 0.00 0.00 0.00 0.00 0.00 0.00 0.00
0.00 0.01 0.03 0.04 0.03 0.02 0.02 0.02 0.01 0.00 0.00 0.00 0.00 0.00 0.00 0.00 0.00 0.00 0.00 0.00 0.00 0.00

GFSNIL_prec_precacc12_036.txt.gz
Total_Precipitation_Accumulation
0.16 0.19 0.21 0.25 0.29 0.23 0.19 0.18 0.22 0.20 0.15 0.08 0.03 0.02 0.03 0.05 0.05 0.07 0.09 0.08 0.03 0.00
0.20 0.25 0.37 0.35 0.24 0.21 0.09 0.03 0.02 0.02 0.01 0.02 0.04 0.07 0.09 0.11 0.10 0.07 0.04 0.02 0.00 0.00
0.32 0.33 0.31 0.26 0.31 0.20 0.09 0.03 0.01 0.01 0.03 0.09 0.14 0.15 0.12 0.06 0.03 0.02 0.00 0.00 0.00 0.00
0.34 0.46 0.35 0.24 0.25 0.19 0.10 0.07 0.06 0.10 0.12 0.09 0.05 0.02 0.01 0.01 0.02 0.01 0.01 0.02 0.02 0.00
0.26 0.38 0.33 0.33 0.18 0.14 0.09 0.07 0.03 0.01 0.01 0.00 0.01 0.01 0.01 0.02 0.03 0.04 0.06 0.04 0.01 0.00
0.12 0.37 0.22 0.18 0.14 0.09 0.04 0.02 0.01 0.01 0.02 0.02 0.02 0.02 0.02 0.03 0.08 0.10 0.04 0.03 0.02 0.00
0.15 0.17 0.11 0.06 0.03 0.01 0.00 0.00 0.00 0.01 0.01 0.01 0.01 0.02 0.06 0.10 0.08 0.08 0.07 0.02 0.00 0.00
0.09 0.02 0.00 0.01 0.00 0.00 0.00 0.00 0.00 0.00 0.00 0.00 0.04 0.11 0.12 0.12 0.12 0.04 0.01 0.00 0.00 0.00
0.01 0.00 0.00 0.00 0.00 0.00 0.00 0.00 0.00 0.01 0.02 0.05 0.11 0.13 0.12 0.06 0.01 0.00 0.00 0.00 0.00 0.00
0.00 0.00 0.00 0.00 0.00 0.00 0.00 0.00 0.01 0.02 0.08 0.14 0.10 0.06 0.02 0.01 0.00 0.01 0.00 0.00 0.00 0.00
0.00 0.00 0.00 0.00 0.00 0.00 0.01 0.03 0.06 0.11 0.12 0.05 0.01 0.02 0.04 0.03 0.01 0.01 0.00 0.00 0.00 0.00
0.00 0.00 0.00 0.00 0.01 0.02 0.04 0.08 0.09 0.03 0.01 0.02 0.02 0.04 0.03 0.02 0.00 0.00 0.00 0.00 0.00 0.00
0.00 0.00 0.00 0.01 0.01 0.02 0.01 0.01 0.02 0.04 0.04 0.05 0.02 0.01 0.00 0.00 0.00 0.00 0.00 0.00 0.00 0.00
0.00 0.00 0.00 0.00 0.00 0.01 0.01 0.02 0.01 0.00 0.00 0.00 0.00 0.00 0.00 0.00 0.00 0.00 0.00 0.00 0.00 0.00

GFSNIL_prec_precacc12_039.txt.gz
Total_Precipitation_Accumulation
0.05 0.08 0.14 0.21 0.37 0.41 0.31 0.27 0.33 0.24 0.16 0.08 0.06 0.03 0.04 0.05 0.05 0.07 0.09 0.10 0.06 0.04
0.12 0.16 0.30 0.33 0.25 0.28 0.20 0.12 0.14 0.10 0.04 0.00 0.02 0.07 0.09 0.11 0.10 0.07 0.04 0.03 0.02 0.01
0.19 0.23 0.24 0.23 0.34 0.29 0.25 0.22 0.21 0.14 0.11 0.12 0.15 0.15 0.12 0.06 0.03 0.02 0.02 0.01 0.01 0.01
0.23 0.46 0.49 0.39 0.34 0.34 0.18 0.15 0.22 0.21 0.16 0.10 0.06 0.03 0.01 0.01 0.02 0.02 0.02 0.02 0.03 0.02
0.46 0.74 0.88 0.77 0.46 0.43 0.17 0.17 0.07 0.02 0.02 0.02 0.01 0.01 0.01 0.03 0.03 0.04 0.08 0.07 0.03 0.02
0.31 0.59 0.43 0.41 0.29 0.14 0.09 0.05 0.02 0.01 0.02 0.02 0.02 0.02 0.02 0.03 0.08 0.11 0.06 0.05 0.04 0.01
0.12 0.20 0.16 0.10 0.07 0.05 0.03 0.03 0.02 0.01 0.01 0.01 0.01 0.01 0.04 0.09 0.08 0.09 0.08 0.03 0.01 0.00
0.12 0.03 0.04 0.04 0.02 0.00 0.02 0.01 0.00 0.00 0.00 0.01 0.01 0.04 0.07 0.12 0.12 0.04 0.01 0.00 0.00 0.00
0.02 0.01 0.01 0.00 0.00 0.00 0.00 0.00 0.00 0.00 0.01 0.01 0.03 0.09 0.12 0.06 0.01 0.00 0.00 0.00 0.00 0.00
0.00 0.00 0.00 0.00 0.00 0.00 0.00 0.00 0.00 0.00 0.01 0.04 0.07 0.05 0.02 0.01 0.00 0.01 0.00 0.00 0.00 0.00
0.00 0.00 0.00 0.00 0.00 0.00 0.00 0.00 0.01 0.01 0.03 0.03 0.01 0.01 0.03 0.03 0.01 0.01 0.00 0.00 0.00 0.00
0.00 0.00 0.00 0.00 0.00 0.00 0.00 0.00 0.00 0.00 0.00 0.00 0.00 0.03 0.03 0.02 0.00 0.00 0.00 0.00 0.00 0.00
0.00 0.00 0.00 0.00 0.00 0.00 0.00 0.00 0.00 0.00 0.00 0.03 0.01 0.01 0.00 0.00 0.00 0.00 0.00 0.00 0.00 0.00
0.00 0.00 0.00 0.00 0.00 0.00 0.00 0.00 0.00 0.00 0.00 0.00 0.00 0.00 0.00 0.00 0.00 0.00 0.00 0.00 0.00 0.00

GFSNIL_prec_precacc12_042.txt.gz
Total_Precipitation_Accumulation
0.01 0.01 0.05 0.12 0.30 0.36 0.28 0.27 0.40 0.34 0.32 0.20 0.12 0.11 0.06 0.03 0.06 0.07 0.09 0.10 0.07 0.05
0.06 0.12 0.22 0.29 0.26 0.28 0.19 0.12 0.20 0.23 0.20 0.13 0.14 0.12 0.11 0.13 0.10 0.07 0.05 0.03 0.02 0.01
0.13 0.13 0.17 0.18 0.32 0.31 0.30 0.32 0.36 0.30 0.21 0.18 0.19 0.19 0.16 0.08 0.04 0.03 0.03 0.02 0.01 0.01
0.17 0.36 0.49 0.45 0.45 0.47 0.46 0.43 0.32 0.21 0.15 0.12 0.10 0.05 0.01 0.02 0.04 0.04 0.03 0.03 0.04 0.02
0.47 0.81 1.35 1.38 1.05 1.18 1.07 0.60 0.16 0.09 0.07 0.05 0.04 0.02 0.01 0.03 0.04 0.04 0.08 0.07 0.04 0.02
0.51 0.88 0.85 0.58 0.42 0.36 0.43 0.24 0.03 0.03 0.05 0.05 0.04 0.03 0.02 0.03 0.04 0.07 0.05 0.05 0.04 0.03
0.19 0.27 0.26 0.20 0.16 0.12 0.07 0.10 0.05 0.04 0.04 0.02 0.01 0.01 0.01 0.02 0.04 0.09 0.08 0.03 0.01 0.00
0.19 0.12 0.12 0.07 0.05 0.04 0.05 0.06 0.04 0.03 0.02 0.01 0.01 0.01 0.03 0.08 0.11 0.04 0.01 0.00 0.00 0.00
0.08 0.06 0.06 0.03 0.02 0.02 0.03 0.02 0.01 0.01 0.00 0.01 0.02 0.04 0.04 0.04 0.01 0.00 0.00 0.00 0.00 0.00
0.04 0.05 0.04 0.04 0.02 0.01 0.00 0.00 0.00 0.00 0.00 0.00 0.00 0.01 0.00 0.00 0.00 0.01 0.00 0.00 0.00 0.00
0.03 0.03 0.03 0.01 0.00 0.00 0.00 0.00 0.00 0.00 0.00 0.00 0.00 0.00 0.00 0.01 0.01 0.01 0.00 0.00 0.00 0.00
0.02 0.02 0.01 0.00 0.00 0.00 0.00 0.00 0.00 0.00 0.00 0.00 0.00 0.00 0.00 0.01 0.00 0.00 0.00 0.00 0.00 0.00
0.00 0.00 0.00 0.00 0.00 0.00 0.00 0.00 0.00 0.00 0.00 0.00 0.00 0.00 0.00 0.00 0.00 0.00 0.00 0.00 0.00 0.00
0.00 0.00 0.00 0.00 0.00 0.00 0.00 0.00 0.00 0.00 0.00 0.00 0.00 0.00 0.00 0.00 0.00 0.00 0.00 0.00 0.00 0.00

GFSNIL_prec_precacc12_045.txt.gz
Total_Precipitation_Accumulation
0.01 0.01 0.04 0.08 0.24 0.32 0.22 0.14 0.28 0.30 0.34 0.29 0.22 0.23 0.21 0.15 0.13 0.12 0.11 0.11 0.07 0.05
0.06 0.12 0.20 0.23 0.21 0.27 0.22 0.13 0.20 0.28 0.27 0.25 0.33 0.31 0.24 0.15 0.13 0.09 0.05 0.04 0.03 0.02
0.13 0.12 0.12 0.13 0.30 0.31 0.33 0.37 0.45 0.45 0.43 0.40 0.32 0.20 0.15 0.09 0.06 0.04 0.03 0.03 0.03 0.03
0.17 0.30 0.43 0.44 0.48 0.50 0.51 0.51 0.52 0.46 0.34 0.22 0.13 0.06 0.02 0.02 0.04 0.04 0.04 0.05 0.06 0.06
0.50 0.82 1.35 1.42 1.13 1.38 1.42 1.07 0.78 0.58 0.29 0.09 0.05 0.03 0.01 0.03 0.05 0.06 0.07 0.07 0.07 0.06
0.57 0.94 0.88 0.60 0.44 0.36 0.47 0.44 0.23 0.12 0.08 0.06 0.05 0.03 0.03 0.04 0.05 0.06 0.05 0.07 0.07 0.04
0.19 0.31 0.28 0.22 0.16 0.17 0.15 0.12 0.07 0.06 0.07 0.05 0.04 0.04 0.04 0.03 0.03 0.04 0.06 0.04 0.01 0.00
0.20 0.16 0.13 0.09 0.06 0.08 0.12 0.16 0.10 0.09 0.06 0.05 0.04 0.04 0.03 0.01 0.01 0.01 0.00 0.00 0.00 0.00
0.10 0.10 0.10 0.06 0.03 0.05 0.08 0.08 0.08 0.08 0.07 0.06 0.04 0.06 0.02 0.01 0.00 0.00 0.00 0.00 0.00 0.00
0.06 0.08 0.06 0.07 0.04 0.05 0.07 0.02 0.03 0.04 0.03 0.02 0.02 0.02 0.01 0.01 0.00 0.00 0.00 0.00 0.00 0.00
0.04 0.05 0.06 0.05 0.04 0.03 0.01 0.00 0.01 0.00 0.00 0.00 0.01 0.01 0.01 0.01 0.00 0.00 0.00 0.00 0.00 0.00
0.04 0.04 0.03 0.01 0.00 0.00 0.00 0.00 0.00 0.00 0.00 0.00 0.00 0.01 0.00 0.01 0.00 0.00 0.00 0.00 0.00 0.00
0.01 0.01 0.00 0.00 0.00 0.00 0.00 0.00 0.00 0.00 0.00 0.00 0.00 0.00 0.00 0.00 0.00 0.00 0.00 0.00 0.00 0.00
0.00 0.00 0.00 0.00 0.00 0.00 0.00 0.00 0.00 0.00 0.00 0.00 0.00 0.00 0.00 0.00 0.00 0.00 0.00 0.00 0.00 0.00

GFSNIL_prec_precacc12_048.txt.gz
Total_Precipitation_Accumulation
0.01 0.00 0.00 0.02 0.13 0.21 0.15 0.12 0.21 0.19 0.27 0.26 0.21 0.24 0.25 0.21 0.21 0.19 0.17 0.14 0.10 0.07
0.00 0.00 0.01 0.06 0.12 0.16 0.18 0.12 0.20 0.28 0.27 0.26 0.36 0.44 0.43 0.38 0.30 0.26 0.20 0.12 0.05 0.03
0.00 0.00 0.04 0.05 0.10 0.17 0.27 0.35 0.44 0.45 0.45 0.43 0.40 0.41 0.39 0.32 0.24 0.17 0.12 0.06 0.05 0.05
0.07 0.12 0.31 0.37 0.35 0.39 0.45 0.48 0.52 0.50 0.40 0.29 0.25 0.29 0.28 0.16 0.12 0.10 0.07 0.05 0.07 0.07
0.45 0.63 1.22 1.27 1.09 1.34 1.40 1.08 0.87 0.67 0.44 0.30 0.18 0.11 0.09 0.04 0.04 0.07 0.07 0.07 0.08 0.08
0.55 0.71 0.80 0.53 0.39 0.33 0.47 0.47 0.28 0.19 0.12 0.08 0.05 0.03 0.03 0.03 0.03 0.04 0.04 0.07 0.08 0.08
0.15 0.21 0.27 0.25 0.21 0.18 0.17 0.16 0.16 0.14 0.14 0.08 0.04 0.03 0.03 0.02 0.03 0.04 0.05 0.05 0.03 0.03
0.13 0.15 0.14 0.10 0.11 0.14 0.17 0.24 0.19 0.18 0.09 0.08 0.08 0.07 0.05 0.02 0.02 0.03 0.02 0.01 0.01 0.01
0.09 0.09 0.10 0.06 0.05 0.09 0.10 0.11 0.13 0.15 0.12 0.09 0.09 0.13 0.07 0.02 0.01 0.01 0.01 0.01 0.00 0.00
0.06 0.08 0.06 0.08 0.06 0.08 0.11 0.07 0.07 0.09 0.10 0.10 0.08 0.10 0.04 0.03 0.00 0.00 0.00 0.00 0.00 0.00
0.04 0.05 0.06 0.06 0.08 0.08 0.07 0.07 0.05 0.05 0.06 0.05 0.04 0.06 0.03 0.02 0.00 0.00 0.00 0.00 0.00 0.00
0.05 0.05 0.05 0.05 0.04 0.05 0.06 0.06 0.05 0.04 0.04 0.02 0.02 0.04 0.02 0.01 0.00 0.00 0.01 0.01 0.01 0.01
0.02 0.02 0.01 0.02 0.02 0.03 0.04 0.03 0.02 0.01 0.01 0.01 0.01 0.03 0.02 0.01 0.00 0.01 0.01 0.01 0.01 0.01
0.00 0.00 0.00 0.00 0.01 0.01 0.01 0.01 0.01 0.00 0.00 0.00 0.00 0.01 0.01 0.01 0.00 0.00 0.00 0.00 0.00 0.00

GFSNIL_prec_precacc12_051.txt.gz
Total_Precipitation_Accumulation
0.00 0.00 0.00 0.00 0.01 0.01 0.01 0.02 0.09 0.15 0.25 0.25 0.19 0.23 0.25 0.21 0.22 0.20 0.19 0.20 0.20 0.20
0.00 0.00 0.00 0.03 0.04 0.04 0.05 0.03 0.08 0.19 0.24 0.25 0.36 0.43 0.43 0.38 0.30 0.28 0.24 0.20 0.16 0.12
0.00 0.00 0.02 0.02 0.03 0.06 0.10 0.16 0.24 0.31 0.35 0.39 0.39 0.41 0.40 0.33 0.27 0.22 0.17 0.13 0.12 0.10
0.04 0.03 0.10 0.16 0.21 0.21 0.36 0.39 0.36 0.38 0.36 0.28 0.25 0.30 0.36 0.40 0.44 0.43 0.37 0.31 0.24 0.15
0.16 0.20 0.60 0.78 0.77 1.03 1.30 0.97 0.83 0.66 0.43 0.28 0.18 0.12 0.12 0.16 0.18 0.20 0.18 0.16 0.15 0.13
0.34 0.44 0.54 0.26 0.22 0.27 0.43 0.44 0.27 0.18 0.12 0.08 0.05 0.03 0.03 0.06 0.12 0.16 0.10 0.07 0.08 0.09
0.14 0.16 0.19 0.20 0.17 0.14 0.15 0.14 0.15 0.14 0.15 0.10 0.05 0.03 0.03 0.02 0.03 0.03 0.03 0.05 0.03 0.04
0.09 0.13 0.11 0.06 0.09 0.15 0.16 0.24 0.21 0.20 0.11 0.10 0.10 0.08 0.08 0.03 0.02 0.03 0.03 0.02 0.02 0.03
0.08 0.09 0.10 0.05 0.05 0.09 0.11 0.13 0.18 0.20 0.19 0.15 0.14 0.22 0.17 0.10 0.05 0.03 0.03 0.03 0.02 0.04
0.06 0.08 0.06 0.08 0.06 0.08 0.11 0.09 0.10 0.11 0.15 0.17 0.16 0.23 0.13 0.13 0.06 0.06 0.06 0.03 0.02 0.01
0.04 0.05 0.06 0.06 0.08 0.08 0.07 0.09 0.08 0.08 0.10 0.08 0.09 0.15 0.09 0.07 0.02 0.02 0.02 0.02 0.01 0.01
0.05 0.05 0.05 0.05 0.04 0.05 0.07 0.10 0.10 0.08 0.08 0.06 0.07 0.10 0.05 0.04 0.00 0.01 0.02 0.01 0.01 0.01
0.02 0.02 0.01 0.03 0.02 0.04 0.06 0.06 0.05 0.05 0.04 0.06 0.04 0.09 0.05 0.03 0.00 0.01 0.01 0.01 0.02 0.03
0.03 0.03 0.02 0.01 0.01 0.02 0.02 0.02 0.02 0.03 0.02 0.03 0.03 0.04 0.04 0.02 0.00 0.00 0.00 0.01 0.01 0.01

GFSNIL_prec_precacc12_054.txt.gz
Total_Precipitation_Accumulation
0.00 0.00 0.00 0.00 0.00 0.00 0.00 0.00 0.00 0.01 0.06 0.13 0.13 0.15 0.19 0.20 0.21 0.21 0.19 0.20 0.20 0.20
0.00 0.00 0.00 0.00 0.00 0.02 0.04 0.01 0.01 0.04 0.08 0.13 0.23 0.33 0.37 0.35 0.30 0.28 0.23 0.19 0.16 0.12
0.00 0.00 0.00 0.00 0.00 0.01 0.04 0.06 0.09 0.16 0.23 0.26 0.28 0.33 0.34 0.32 0.26 0.21 0.16 0.13 0.12 0.12
0.01 0.00 0.02 0.03 0.04 0.05 0.07 0.10 0.22 0.29 0.27 0.23 0.20 0.28 0.36 0.40 0.43 0.41 0.36 0.31 0.27 0.22
0.11 0.06 0.07 0.12 0.12 0.24 0.37 0.51 0.72 0.59 0.37 0.25 0.15 0.11 0.12 0.15 0.17 0.19 0.19 0.21 0.24 0.23
0.12 0.14 0.09 0.06 0.06 0.03 0.06 0.23 0.25 0.17 0.09 0.05 0.03 0.02 0.03 0.06 0.11 0.16 0.13 0.12 0.12 0.10
0.03 0.06 0.08 0.10 0.07 0.08 0.10 0.07 0.11 0.11 0.12 0.09 0.04 0.03 0.03 0.02 0.03 0.04 0.05 0.05 0.03 0.04
0.02 0.05 0.03 0.03 0.06 0.11 0.13 0.19 0.18 0.18 0.10 0.10 0.09 0.08 0.08 0.04 0.03 0.04 0.04 0.03 0.02 0.03
0.02 0.03 0.04 0.02 0.04 0.06 0.08 0.11 0.17 0.19 0.19 0.15 0.14 0.22 0.20 0.13 0.07 0.05 0.04 0.04 0.03 0.04
0.02 0.03 0.02 0.04 0.04 0.06 0.11 0.09 0.10 0.11 0.15 0.18 0.18 0.26 0.18 0.17 0.08 0.08 0.09 0.06 0.05 0.04
0.01 0.02 0.03 0.05 0.08 0.08 0.08 0.09 0.08 0.09 0.11 0.10 0.11 0.19 0.14 0.13 0.04 0.03 0.03 0.03 0.03 0.03
0.03 0.03 0.04 0.05 0.04 0.05 0.07 0.10 0.10 0.09 0.09 0.08 0.11 0.19 0.10 0.06 0.01 0.02 0.03 0.03 0.04 0.05
0.02 0.02 0.01 0.03 0.02 0.04 0.06 0.06 0.05 0.06 0.06 0.12 0.07 0.16 0.09 0.06 0.01 0.02 0.03 0.03 0.05 0.10
0.03 0.04 0.04 0.01 0.02 0.02 0.02 0.02 0.02 0.04 0.03 0.04 0.07 0.09 0.10 0.07 0.01 0.01 0.03 0.04 0.04 0.05

GFSNIL_prec_precacc12_057.txt.gz
Total_Precipitation_Accumulation
0.00 0.00 0.00 0.00 0.00 0.00 0.00 0.00 0.00 0.00 0.00 0.00 0.00 0.01 0.05 0.08 0.13 0.17 0.20 0.20 0.22 0.22
0.00 0.00 0.00 0.00 0.00 0.00 0.00 0.00 0.00 0.00 0.00 0.00 0.03 0.13 0.20 0.26 0.24 0.25 0.23 0.19 0.15 0.12
0.00 0.00 0.00 0.00 0.00 0.00 0.00 0.00 0.00 0.01 0.02 0.03 0.07 0.21 0.27 0.27 0.23 0.20 0.16 0.12 0.11 0.10
0.00 0.00 0.00 0.00 0.00 0.00 0.00 0.00 0.01 0.04 0.06 0.07 0.12 0.24 0.34 0.39 0.42 0.41 0.34 0.30 0.24 0.19
0.05 0.01 0.00 0.01 0.01 0.01 0.01 0.03 0.09 0.09 0.15 0.21 0.13 0.10 0.12 0.15 0.16 0.17 0.17 0.18 0.21 0.20
0.06 0.06 0.03 0.01 0.01 0.00 0.01 0.03 0.05 0.07 0.05 0.02 0.00 0.01 0.01 0.04 0.10 0.13 0.10 0.09 0.11 0.10
0.01 0.02 0.05 0.07 0.06 0.03 0.03 0.05 0.09 0.08 0.08 0.05 0.01 0.00 0.00 0.00 0.01 0.03 0.03 0.05 0.05 0.07
0.00 0.00 0.01 0.02 0.07 0.07 0.06 0.09 0.11 0.11 0.05 0.05 0.06 0.04 0.06 0.03 0.03 0.03 0.03 0.03 0.03 0.04
0.00 0.00 0.00 0.00 0.02 0.03 0.03 0.04 0.10 0.12 0.12 0.10 0.10 0.18 0.19 0.12 0.07 0.05 0.04 0.04 0.05 0.06
0.00 0.00 0.00 0.01 0.01 0.02 0.05 0.07 0.07 0.07 0.12 0.16 0.16 0.24 0.18 0.17 0.09 0.09 0.10 0.07 0.07 0.06
0.00 0.00 0.00 0.01 0.04 0.06 0.06 0.09 0.08 0.08 0.10 0.09 0.11 0.18 0.15 0.15 0.06 0.05 0.06 0.06 0.06 0.06
0.01 0.01 0.01 0.04 0.04 0.05 0.07 0.10 0.10 0.09 0.09 0.09 0.12 0.21 0.14 0.10 0.03 0.06 0.09 0.06 0.07 0.10
0.01 0.01 0.01 0.03 0.02 0.04 0.06 0.06 0.05 0.06 0.06 0.13 0.08 0.25 0.17 0.11 0.02 0.05 0.06 0.05 0.09 0.17
0.03 0.03 0.04 0.01 0.02 0.02 0.03 0.02 0.03 0.04 0.03 0.04 0.09 0.14 0.15 0.11 0.03 0.02 0.06 0.09 0.10 0.15

GFSNIL_prec_precacc12_060.txt.gz
Total_Precipitation_Accumulation
0.00 0.00 0.00 0.00 0.00 0.00 0.00 0.00 0.00 0.01 0.01 0.01 0.00 0.01 0.02 0.03 0.03 0.06 0.09 0.14 0.19 0.21
0.00 0.00 0.00 0.00 0.00 0.00 0.00 0.00 0.00 0.00 0.01 0.01 0.00 0.00 0.02 0.02 0.03 0.07 0.06 0.10 0.14 0.13
0.00 0.00 0.00 0.00 0.00 0.00 0.00 0.00 0.00 0.00 0.01 0.02 0.02 0.02 0.01 0.03 0.04 0.08 0.09 0.11 0.10 0.10
0.00 0.00 0.00 0.00 0.00 0.00 0.00 0.00 0.00 0.00 0.00 0.00 0.00 0.02 0.08 0.24 0.32 0.34 0.31 0.28 0.22 0.17
0.01 0.00 0.00 0.00 0.00 0.00 0.00 0.00 0.00 0.00 0.00 0.00 0.00 0.01 0.04 0.12 0.14 0.13 0.16 0.17 0.20 0.18
0.03 0.02 0.01 0.00 0.00 0.00 0.00 0.00 0.00 0.00 0.00 0.00 0.00 0.00 0.01 0.04 0.09 0.13 0.10 0.08 0.08 0.06
0.00 0.00 0.02 0.02 0.00 0.00 0.00 0.00 0.00 0.00 0.01 0.02 0.01 0.00 0.00 0.00 0.00 0.01 0.01 0.01 0.02 0.04
0.00 0.00 0.00 0.00 0.01 0.01 0.01 0.01 0.02 0.02 0.02 0.02 0.01 0.02 0.03 0.02 0.01 0.01 0.02 0.02 0.02 0.04
0.00 0.00 0.00 0.00 0.00 0.00 0.00 0.02 0.05 0.05 0.08 0.06 0.06 0.11 0.14 0.10 0.06 0.04 0.03 0.04 0.05 0.06
0.00 0.00 0.00 0.00 0.00 0.00 0.00 0.02 0.02 0.02 0.05 0.09 0.10 0.17 0.15 0.15 0.09 0.09 0.10 0.08 0.07 0.05
0.00 0.00 0.00 0.00 0.00 0.00 0.01 0.03 0.03 0.04 0.06 0.05 0.08 0.15 0.13 0.15 0.06 0.05 0.06 0.06 0.06 0.06
0.00 0.00 0.00 0.00 0.00 0.00 0.01 0.04 0.05 0.05 0.05 0.07 0.10 0.18 0.13 0.09 0.03 0.06 0.09 0.07 0.10 0.15
0.00 0.00 0.01 0.01 0.01 0.01 0.02 0.03 0.03 0.05 0.05 0.12 0.07 0.23 0.17 0.12 0.03 0.08 0.10 0.10 0.16 0.30
0.02 0.03 0.04 0.02 0.01 0.01 0.02 0.02 0.02 0.04 0.03 0.05 0.10 0.15 0.18 0.15 0.05 0.05 0.09 0.15 0.16 0.23

GFSNIL_prec_precacc12_063.txt.gz
Total_Precipitation_Accumulation
0.00 0.00 0.00 0.00 0.00 0.00 0.00 0.00 0.00 0.01 0.01 0.01 0.00 0.02 0.03 0.05 0.04 0.06 0.10 0.09 0.07 0.06
0.00 0.00 0.00 0.00 0.00 0.00 0.00 0.00 0.00 0.00 0.01 0.01 0.00 0.00 0.02 0.04 0.04 0.07 0.02 0.02 0.04 0.05
0.00 0.00 0.00 0.00 0.00 0.00 0.00 0.00 0.00 0.00 0.01 0.02 0.02 0.02 0.03 0.03 0.03 0.05 0.02 0.02 0.03 0.06
0.00 0.00 0.00 0.00 0.00 0.00 0.00 0.00 0.00 0.00 0.00 0.00 0.00 0.01 0.01 0.00 0.00 0.00 0.00 0.01 0.04 0.08
0.00 0.00 0.00 0.00 0.00 0.00 0.00 0.00 0.00 0.00 0.00 0.00 0.00 0.00 0.00 0.00 0.00 0.00 0.02 0.06 0.11 0.12
0.00 0.01 0.00 0.00 0.00 0.00 0.00 0.00 0.00 0.00 0.00 0.00 0.00 0.00 0.00 0.00 0.00 0.00 0.03 0.06 0.07 0.05
0.00 0.00 0.02 0.02 0.00 0.00 0.00 0.00 0.00 0.00 0.00 0.00 0.00 0.00 0.00 0.00 0.00 0.01 0.01 0.01 0.02 0.03
0.00 0.00 0.00 0.00 0.01 0.00 0.00 0.00 0.00 0.00 0.00 0.00 0.00 0.00 0.00 0.00 0.01 0.00 0.00 0.01 0.01 0.02
0.00 0.00 0.00 0.00 0.00 0.00 0.00 0.00 0.00 0.00 0.00 0.00 0.00 0.01 0.03 0.03 0.02 0.02 0.01 0.01 0.02 0.02
0.00 0.00 0.00 0.00 0.00 0.00 0.00 0.00 0.00 0.01 0.00 0.01 0.02 0.05 0.07 0.06 0.04 0.03 0.04 0.04 0.04 0.05
0.00 0.01 0.01 0.02 0.00 0.00 0.00 0.00 0.00 0.01 0.02 0.02 0.03 0.06 0.08 0.10 0.04 0.03 0.04 0.04 0.05 0.06
0.00 0.00 0.00 0.01 0.00 0.00 0.00 0.00 0.00 0.02 0.02 0.04 0.05 0.12 0.10 0.07 0.03 0.06 0.08 0.07 0.10 0.15
0.00 0.00 0.00 0.00 0.00 0.00 0.00 0.00 0.01 0.01 0.02 0.07 0.04 0.19 0.16 0.13 0.05 0.10 0.11 0.12 0.16 0.32
0.00 0.00 0.01 0.01 0.01 0.01 0.01 0.01 0.02 0.02 0.02 0.05 0.11 0.16 0.23 0.21 0.08 0.07 0.12 0.17 0.19 0.28

GFSNIL_prec_precacc12_066.txt.gz
Total_Precipitation_Accumulation
0.00 0.00 0.00 0.00 0.00 0.00 0.00 0.00 0.00 0.01 0.01 0.01 0.00 0.02 0.03 0.05 0.05 0.06 0.11 0.10 0.07 0.06
0.00 0.00 0.00 0.00 0.00 0.00 0.00 0.00 0.00 0.00 0.01 0.01 0.00 0.00 0.03 0.04 0.04 0.07 0.02 0.04 0.06 0.06
0.00 0.00 0.00 0.00 0.00 0.00 0.00 0.00 0.00 0.00 0.01 0.02 0.02 0.02 0.03 0.03 0.04 0.05 0.02 0.03 0.04 0.05
0.00 0.00 0.00 0.00 0.00 0.00 0.00 0.00 0.00 0.00 0.00 0.00 0.00 0.01 0.01 0.00 0.00 0.00 0.00 0.00 0.01 0.01
0.00 0.00 0.00 0.00 0.00 0.00 0.00 0.00 0.00 0.00 0.00 0.00 0.00 0.00 0.00 0.00 0.00 0.00 0.00 0.00 0.02 0.01
0.00 0.00 0.00 0.00 0.00 0.00 0.00 0.00 0.00 0.00 0.00 0.00 0.00 0.00 0.00 0.00 0.00 0.00 0.00 0.00 0.02 0.02
0.00 0.00 0.00 0.00 0.00 0.00 0.00 0.00 0.00 0.00 0.00 0.00 0.00 0.00 0.00 0.00 0.00 0.00 0.00 0.00 0.01 0.02
0.05 0.03 0.02 0.01 0.01 0.00 0.00 0.00 0.00 0.00 0.00 0.00 0.00 0.00 0.00 0.00 0.00 0.00 0.00 0.00 0.01 0.01
0.03 0.06 0.06 0.07 0.07 0.03 0.00 0.00 0.00 0.00 0.00 0.00 0.00 0.00 0.00 0.00 0.00 0.00 0.00 0.00 0.02 0.02
0.01 0.01 0.03 0.06 0.06 0.04 0.01 0.04 0.01 0.02 0.01 0.00 0.00 0.02 0.02 0.02 0.01 0.01 0.01 0.01 0.01 0.01
0.00 0.01 0.02 0.03 0.01 0.02 0.04 0.03 0.02 0.03 0.03 0.04 0.02 0.04 0.06 0.08 0.04 0.02 0.03 0.03 0.03 0.03
0.00 0.00 0.01 0.01 0.01 0.02 0.02 0.02 0.02 0.04 0.05 0.04 0.02 0.08 0.10 0.12 0.08 0.08 0.08 0.06 0.08 0.12
0.00 0.00 0.00 0.00 0.00 0.01 0.02 0.02 0.04 0.02 0.02 0.06 0.04 0.15 0.16 0.16 0.07 0.11 0.12 0.13 0.16 0.30
0.00 0.00 0.00 0.01 0.00 0.01 0.01 0.02 0.03 0.04 0.05 0.08 0.12 0.16 0.24 0.22 0.10 0.08 0.13 0.20 0.22 0.30

GFSNIL_prec_precacc12_069.txt.gz
Total_Precipitation_Accumulation
0.00 0.00 0.00 0.00 0.00 0.00 0.00 0.00 0.00 0.01 0.03 0.04 0.04 0.05 0.03 0.06 0.07 0.05 0.08 0.08 0.05 0.03
0.00 0.00 0.00 0.00 0.00 0.00 0.00 0.00 0.00 0.00 0.02 0.02 0.03 0.03 0.04 0.05 0.06 0.08 0.02 0.03 0.06 0.05
0.00 0.00 0.00 0.00 0.00 0.00 0.00 0.00 0.00 0.00 0.01 0.02 0.02 0.02 0.03 0.03 0.04 0.05 0.02 0.02 0.03 0.04
0.00 0.00 0.00 0.00 0.00 0.00 0.00 0.00 0.00 0.00 0.00 0.00 0.00 0.01 0.01 0.00 0.00 0.00 0.00 0.00 0.00 0.00
0.00 0.00 0.00 0.00 0.00 0.00 0.00 0.00 0.00 0.00 0.00 0.00 0.00 0.00 0.00 0.00 0.00 0.00 0.00 0.00 0.00 0.00
0.00 0.00 0.00 0.00 0.00 0.00 0.00 0.00 0.00 0.00 0.00 0.00 0.00 0.00 0.00 0.00 0.00 0.00 0.00 0.00 0.00 0.00
0.02 0.02 0.01 0.00 0.00 0.00 0.00 0.00 0.00 0.00 0.00 0.00 0.00 0.00 0.00 0.00 0.00 0.00 0.00 0.00 0.00 0.00
0.06 0.06 0.04 0.02 0.01 0.01 0.00 0.00 0.00 0.00 0.00 0.00 0.00 0.00 0.00 0.00 0.00 0.00 0.00 0.00 0.00 0.00
0.03 0.06 0.07 0.10 0.14 0.08 0.02 0.04 0.02 0.01 0.00 0.00 0.00 0.00 0.00 0.00 0.00 0.00 0.00 0.00 0.00 0.00
0.01 0.01 0.03 0.07 0.08 0.05 0.04 0.09 0.03 0.05 0.04 0.02 0.02 0.03 0.03 0.03 0.00 0.00 0.00 0.00 0.00 0.00
0.00 0.01 0.02 0.03 0.01 0.02 0.06 0.05 0.05 0.05 0.04 0.06 0.04 0.05 0.10 0.17 0.10 0.04 0.02 0.01 0.00 0.01
0.00 0.00 0.01 0.01 0.01 0.02 0.02 0.03 0.04 0.05 0.07 0.06 0.02 0.09 0.16 0.19 0.14 0.08 0.06 0.08 0.06 0.08
0.00 0.00 0.00 0.00 0.00 0.01 0.02 0.02 0.04 0.02 0.03 0.10 0.07 0.13 0.15 0.16 0.10 0.09 0.11 0.13 0.13 0.26
0.00 0.00 0.00 0.01 0.00 0.01 0.01 0.01 0.02 0.04 0.05 0.09 0.14 0.17 0.27 0.25 0.18 0.13 0.16 0.19 0.21 0.26

GFSNIL_prec_precacc12_072.txt.gz
Total_Precipitation_Accumulation
0.00 0.00 0.00 0.01 0.01 0.01 0.00 0.00 0.01 0.05 0.08 0.08 0.08 0.07 0.06 0.11 0.12 0.10 0.08 0.03 0.02 0.02
0.00 0.00 0.00 0.00 0.00 0.00 0.00 0.00 0.00 0.01 0.05 0.04 0.07 0.09 0.08 0.09 0.09 0.11 0.10 0.09 0.07 0.04
0.00 0.00 0.00 0.00 0.00 0.00 0.00 0.00 0.00 0.00 0.00 0.00 0.02 0.05 0.05 0.04 0.04 0.07 0.05 0.06 0.08 0.06
0.00 0.00 0.00 0.00 0.00 0.00 0.00 0.00 0.00 0.00 0.00 0.00 0.00 0.01 0.03 0.01 0.01 0.01 0.00 0.01 0.02 0.01
0.00 0.00 0.00 0.00 0.00 0.00 0.00 0.00 0.00 0.00 0.00 0.00 0.00 0.00 0.00 0.00 0.00 0.00 0.00 0.00 0.00 0.00
0.01 0.00 0.00 0.00 0.00 0.00 0.00 0.00 0.00 0.00 0.00 0.00 0.00 0.00 0.00 0.00 0.00 0.00 0.00 0.00 0.00 0.00
0.02 0.02 0.01 0.00 0.00 0.00 0.00 0.00 0.00 0.00 0.00 0.00 0.00 0.00 0.00 0.00 0.00 0.00 0.00 0.00 0.00 0.00
0.06 0.06 0.05 0.03 0.02 0.01 0.00 0.00 0.00 0.00 0.00 0.00 0.00 0.00 0.00 0.00 0.00 0.00 0.00 0.00 0.00 0.00
0.04 0.07 0.08 0.11 0.15 0.09 0.03 0.06 0.03 0.02 0.01 0.01 0.01 0.01 0.00 0.00 0.00 0.00 0.00 0.00 0.00 0.00
0.01 0.01 0.03 0.08 0.09 0.07 0.07 0.12 0.06 0.07 0.06 0.03 0.05 0.10 0.09 0.09 0.04 0.01 0.00 0.00 0.00 0.00
0.00 0.01 0.02 0.03 0.01 0.02 0.06 0.06 0.07 0.07 0.06 0.09 0.09 0.14 0.20 0.28 0.18 0.08 0.03 0.01 0.04 0.04
0.00 0.00 0.01 0.01 0.01 0.02 0.02 0.03 0.04 0.06 0.08 0.08 0.05 0.16 0.18 0.22 0.16 0.09 0.07 0.12 0.10 0.11
0.00 0.00 0.00 0.00 0.00 0.01 0.02 0.02 0.04 0.02 0.03 0.11 0.07 0.15 0.14 0.15 0.10 0.06 0.08 0.12 0.15 0.35
0.00 0.00 0.00 0.00 0.00 0.01 0.01 0.01 0.02 0.04 0.05 0.09 0.14 0.16 0.24 0.21 0.16 0.11 0.16 0.22 0.24 0.26

GFSNIL_prec_precacc12_075.txt.gz
Total_Precipitation_Accumulation
0.00 0.00 0.00 0.01 0.01 0.01 0.00 0.01 0.05 0.10 0.12 0.15 0.18 0.12 0.07 0.09 0.11 0.10 0.05 0.01 0.01 0.01
0.00 0.00 0.00 0.00 0.00 0.01 0.01 0.00 0.00 0.03 0.12 0.12 0.13 0.14 0.10 0.08 0.08 0.09 0.10 0.08 0.05 0.02
0.00 0.00 0.00 0.00 0.00 0.00 0.01 0.01 0.00 0.00 0.01 0.09 0.10 0.09 0.10 0.07 0.04 0.06 0.06 0.07 0.11 0.09
0.00 0.00 0.00 0.00 0.00 0.00 0.00 0.01 0.00 0.00 0.00 0.00 0.01 0.00 0.04 0.09 0.05 0.03 0.02 0.03 0.04 0.04
0.00 0.00 0.00 0.00 0.00 0.00 0.00 0.00 0.00 0.00 0.00 0.00 0.00 0.00 0.00 0.01 0.04 0.04 0.03 0.01 0.01 0.01
0.01 0.00 0.00 0.00 0.00 0.00 0.00 0.00 0.00 0.00 0.00 0.00 0.00 0.00 0.00 0.00 0.00 0.00 0.00 0.00 0.00 0.00
0.03 0.02 0.01 0.00 0.00 0.00 0.00 0.00 0.00 0.00 0.00 0.00 0.00 0.00 0.00 0.00 0.00 0.00 0.00 0.00 0.00 0.00
0.07 0.07 0.06 0.04 0.02 0.01 0.00 0.00 0.00 0.00 0.00 0.00 0.00 0.00 0.00 0.00 0.00 0.00 0.00 0.00 0.00 0.00
0.04 0.08 0.09 0.13 0.16 0.10 0.04 0.08 0.04 0.03 0.03 0.03 0.04 0.06 0.02 0.01 0.00 0.00 0.00 0.00 0.00 0.00
0.00 0.01 0.03 0.08 0.09 0.07 0.08 0.13 0.09 0.11 0.10 0.08 0.12 0.20 0.11 0.12 0.04 0.01 0.01 0.00 0.00 0.00
0.00 0.00 0.00 0.00 0.01 0.02 0.06 0.06 0.07 0.08 0.07 0.11 0.12 0.18 0.20 0.27 0.18 0.08 0.03 0.02 0.05 0.05
0.00 0.00 0.00 0.00 0.00 0.02 0.02 0.03 0.03 0.04 0.07 0.07 0.05 0.16 0.18 0.22 0.15 0.09 0.08 0.13 0.18 0.21
0.00 0.00 0.00 0.00 0.00 0.01 0.02 0.02 0.03 0.02 0.03 0.10 0.07 0.14 0.12 0.12 0.07 0.03 0.06 0.12 0.20 0.41
0.00 0.00 0.00 0.00 0.00 0.00 0.00 0.01 0.01 0.03 0.04 0.06 0.11 0.11 0.16 0.14 0.13 0.08 0.13 0.19 0.21 0.24

GFSNIL_prec_precacc12_078.txt.gz
Total_Precipitation_Accumulation
0.01 0.00 0.00 0.01 0.01 0.02 0.01 0.01 0.08 0.24 0.28 0.22 0.21 0.14 0.08 0.09 0.10 0.09 0.04 0.01 0.00 0.00
0.00 0.00 0.00 0.00 0.00 0.01 0.01 0.01 0.01 0.07 0.19 0.18 0.16 0.17 0.13 0.09 0.08 0.09 0.09 0.07 0.03 0.01
0.00 0.00 0.00 0.00 0.00 0.00 0.01 0.02 0.01 0.02 0.04 0.13 0.19 0.14 0.14 0.11 0.05 0.06 0.06 0.06 0.09 0.08
0.00 0.00 0.00 0.00 0.00 0.00 0.00 0.01 0.00 0.01 0.01 0.01 0.03 0.05 0.07 0.12 0.11 0.06 0.02 0.03 0.04 0.04
0.00 0.00 0.01 0.01 0.00 0.00 0.00 0.00 0.01 0.00 0.00 0.00 0.00 0.02 0.02 0.02 0.07 0.07 0.06 0.03 0.01 0.01
0.01 0.00 0.00 0.00 0.01 0.01 0.01 0.00 0.00 0.00 0.00 0.00 0.00 0.00 0.00 0.00 0.00 0.00 0.01 0.02 0.02 0.01
0.03 0.02 0.02 0.00 0.00 0.00 0.01 0.01 0.00 0.00 0.00 0.00 0.00 0.00 0.01 0.01 0.01 0.00 0.00 0.00 0.01 0.01
0.02 0.04 0.04 0.03 0.02 0.02 0.01 0.01 0.00 0.00 0.01 0.01 0.01 0.00 0.00 0.00 0.00 0.00 0.00 0.00 0.00 0.00
0.02 0.03 0.05 0.06 0.10 0.07 0.05 0.08 0.04 0.04 0.03 0.04 0.05 0.08 0.02 0.02 0.00 0.00 0.00 0.00 0.00 0.00
0.00 0.00 0.01 0.02 0.03 0.05 0.08 0.10 0.10 0.11 0.11 0.12 0.14 0.26 0.12 0.13 0.05 0.03 0.04 0.04 0.03 0.03
0.01 0.00 0.00 0.00 0.00 0.01 0.02 0.03 0.05 0.05 0.05 0.08 0.12 0.17 0.18 0.25 0.17 0.08 0.04 0.04 0.07 0.08
0.00 0.00 0.00 0.00 0.00 0.00 0.00 0.01 0.02 0.01 0.03 0.05 0.04 0.12 0.14 0.14 0.09 0.06 0.07 0.14 0.18 0.21
0.00 0.00 0.00 0.00 0.00 0.00 0.00 0.00 0.00 0.00 0.01 0.07 0.03 0.10 0.08 0.06 0.05 0.02 0.03 0.09 0.18 0.37
0.00 0.00 0.00 0.00 0.00 0.00 0.00 0.00 0.00 0.00 0.00 0.02 0.06 0.07 0.10 0.08 0.10 0.06 0.09 0.13 0.15 0.18

GFSNIL_prec_precacc12_081.txt.gz
Total_Precipitation_Accumulation
0.01 0.01 0.01 0.01 0.02 0.03 0.02 0.02 0.11 0.30 0.35 0.27 0.28 0.19 0.11 0.07 0.05 0.07 0.04 0.02 0.01 0.02
0.00 0.01 0.01 0.00 0.01 0.03 0.03 0.03 0.02 0.08 0.27 0.28 0.18 0.18 0.16 0.11 0.07 0.07 0.09 0.07 0.04 0.01
0.00 0.01 0.01 0.00 0.00 0.01 0.02 0.03 0.03 0.03 0.05 0.19 0.27 0.18 0.15 0.12 0.06 0.06 0.06 0.06 0.10 0.08
0.00 0.01 0.00 0.00 0.00 0.00 0.02 0.03 0.02 0.04 0.02 0.03 0.10 0.12 0.14 0.13 0.11 0.08 0.03 0.03 0.04 0.04
0.00 0.01 0.01 0.01 0.01 0.00 0.00 0.01 0.02 0.03 0.03 0.01 0.01 0.04 0.07 0.09 0.09 0.08 0.08 0.04 0.02 0.02
0.01 0.01 0.01 0.01 0.01 0.01 0.01 0.00 0.00 0.02 0.02 0.01 0.01 0.01 0.01 0.02 0.01 0.01 0.03 0.04 0.03 0.01
0.01 0.01 0.01 0.01 0.01 0.01 0.02 0.01 0.01 0.00 0.00 0.00 0.01 0.01 0.02 0.02 0.02 0.02 0.02 0.02 0.03 0.03
0.02 0.02 0.03 0.03 0.02 0.01 0.01 0.01 0.01 0.01 0.01 0.01 0.01 0.01 0.01 0.01 0.03 0.04 0.04 0.03 0.03 0.05
0.03 0.03 0.04 0.04 0.03 0.03 0.04 0.05 0.04 0.04 0.03 0.04 0.06 0.10 0.03 0.02 0.00 0.01 0.01 0.01 0.01 0.01
0.00 0.01 0.01 0.02 0.03 0.05 0.06 0.06 0.08 0.09 0.09 0.11 0.13 0.26 0.11 0.12 0.05 0.03 0.04 0.05 0.04 0.04
0.01 0.01 0.01 0.02 0.02 0.02 0.02 0.03 0.05 0.05 0.05 0.07 0.12 0.17 0.13 0.13 0.09 0.05 0.03 0.04 0.08 0.08
0.00 0.01 0.01 0.00 0.00 0.00 0.00 0.00 0.00 0.00 0.01 0.02 0.03 0.08 0.04 0.03 0.01 0.01 0.03 0.09 0.16 0.21
0.00 0.00 0.00 0.00 0.00 0.00 0.00 0.00 0.00 0.00 0.00 0.01 0.00 0.03 0.01 0.00 0.00 0.00 0.02 0.07 0.16 0.34
0.00 0.00 0.01 0.01 0.00 0.00 0.00 0.00 0.00 0.00 0.00 0.00 0.01 0.01 0.01 0.01 0.00 0.00 0.04 0.10 0.11 0.12

GFSNIL_prec_precacc12_084.txt.gz
Total_Precipitation_Accumulation
0.01 0.01 0.01 0.02 0.02 0.02 0.01 0.02 0.10 0.26 0.39 0.34 0.43 0.34 0.21 0.15 0.07 0.06 0.05 0.04 0.02 0.02
0.00 0.01 0.01 0.01 0.01 0.04 0.03 0.03 0.02 0.07 0.24 0.31 0.21 0.32 0.21 0.12 0.05 0.03 0.04 0.04 0.03 0.02
0.00 0.01 0.01 0.01 0.01 0.01 0.03 0.04 0.04 0.03 0.06 0.22 0.31 0.22 0.25 0.19 0.10 0.05 0.03 0.02 0.04 0.05
0.00 0.01 0.01 0.01 0.01 0.01 0.02 0.03 0.03 0.05 0.03 0.05 0.14 0.19 0.19 0.18 0.14 0.10 0.06 0.03 0.03 0.04
0.00 0.01 0.02 0.01 0.01 0.01 0.01 0.01 0.02 0.04 0.04 0.02 0.03 0.09 0.16 0.16 0.16 0.09 0.10 0.08 0.04 0.03
0.02 0.01 0.01 0.01 0.02 0.02 0.01 0.00 0.00 0.02 0.04 0.02 0.01 0.03 0.06 0.06 0.09 0.06 0.03 0.05 0.05 0.02
0.02 0.01 0.01 0.01 0.02 0.02 0.02 0.01 0.01 0.01 0.02 0.02 0.02 0.04 0.05 0.04 0.05 0.08 0.06 0.06 0.08 0.05
0.03 0.02 0.03 0.02 0.01 0.01 0.01 0.01 0.02 0.01 0.02 0.02 0.02 0.02 0.02 0.03 0.06 0.08 0.10 0.10 0.09 0.10
0.03 0.02 0.03 0.03 0.02 0.02 0.03 0.03 0.03 0.05 0.04 0.04 0.05 0.10 0.03 0.02 0.01 0.03 0.06 0.10 0.10 0.04
0.04 0.03 0.02 0.02 0.02 0.04 0.04 0.04 0.05 0.07 0.08 0.11 0.11 0.21 0.06 0.05 0.02 0.02 0.04 0.05 0.05 0.04
0.06 0.07 0.05 0.05 0.07 0.06 0.05 0.04 0.04 0.04 0.04 0.04 0.07 0.10 0.04 0.04 0.01 0.01 0.02 0.04 0.05 0.06
0.04 0.06 0.08 0.06 0.04 0.05 0.08 0.09 0.07 0.05 0.03 0.02 0.03 0.07 0.04 0.03 0.00 0.02 0.04 0.05 0.11 0.13
0.09 0.04 0.02 0.02 0.02 0.01 0.01 0.03 0.06 0.03 0.01 0.01 0.00 0.01 0.00 0.00 0.00 0.00 0.00 0.02 0.06 0.11
0.12 0.11 0.04 0.01 0.01 0.00 0.00 0.00 0.00 0.00 0.00 0.00 0.00 0.00 0.00 0.00 0.00 0.00 0.00 0.00 0.01 0.03

GFSNIL_prec_precacc12_087.txt.gz
Total_Precipitation_Accumulation
0.00 0.00 0.01 0.01 0.02 0.02 0.01 0.01 0.06 0.20 0.34 0.29 0.42 0.43 0.28 0.25 0.19 0.15 0.10 0.07 0.05 0.04
0.01 0.01 0.01 0.01 0.02 0.03 0.03 0.03 0.02 0.06 0.17 0.26 0.25 0.40 0.29 0.20 0.14 0.12 0.09 0.07 0.06 0.05
0.02 0.01 0.01 0.01 0.02 0.02 0.02 0.03 0.04 0.03 0.05 0.13 0.28 0.28 0.35 0.26 0.17 0.13 0.08 0.06 0.05 0.03
0.03 0.02 0.01 0.02 0.01 0.01 0.02 0.03 0.03 0.05 0.03 0.05 0.16 0.27 0.36 0.34 0.18 0.17 0.13 0.06 0.05 0.04
0.04 0.02 0.02 0.02 0.02 0.01 0.01 0.02 0.02 0.04 0.04 0.02 0.04 0.13 0.26 0.35 0.22 0.11 0.13 0.16 0.10 0.06
0.10 0.02 0.02 0.02 0.02 0.02 0.01 0.00 0.00 0.03 0.04 0.02 0.02 0.05 0.14 0.18 0.16 0.16 0.09 0.16 0.16 0.10
0.08 0.03 0.02 0.01 0.03 0.03 0.02 0.02 0.01 0.01 0.06 0.06 0.02 0.06 0.10 0.11 0.13 0.20 0.19 0.12 0.15 0.12
0.08 0.04 0.03 0.03 0.02 0.01 0.02 0.02 0.02 0.01 0.03 0.06 0.03 0.03 0.05 0.08 0.11 0.13 0.23 0.25 0.19 0.16
0.05 0.03 0.03 0.03 0.03 0.02 0.04 0.03 0.03 0.04 0.03 0.03 0.04 0.08 0.04 0.03 0.02 0.05 0.10 0.15 0.16 0.12
0.05 0.04 0.03 0.04 0.04 0.05 0.03 0.04 0.04 0.05 0.06 0.07 0.06 0.12 0.05 0.05 0.01 0.02 0.06 0.07 0.09 0.10
0.08 0.08 0.07 0.07 0.08 0.08 0.05 0.04 0.04 0.04 0.03 0.03 0.05 0.07 0.05 0.05 0.01 0.01 0.03 0.04 0.05 0.06
0.12 0.10 0.12 0.11 0.09 0.09 0.11 0.12 0.10 0.07 0.04 0.03 0.04 0.08 0.06 0.05 0.00 0.02 0.04 0.04 0.03 0.03
0.24 0.17 0.11 0.11 0.13 0.11 0.09 0.09 0.12 0.14 0.13 0.11 0.06 0.08 0.06 0.03 0.00 0.00 0.00 0.00 0.01 0.01
0.35 0.31 0.25 0.14 0.09 0.08 0.06 0.05 0.04 0.05 0.07 0.07 0.04 0.02 0.02 0.02 0.01 0.00 0.00 0.00 0.00 0.00

GFSNIL_prec_precacc12_090.txt.gz
Total_Precipitation_Accumulation
0.00 0.00 0.01 0.01 0.01 0.02 0.01 0.01 0.03 0.07 0.19 0.23 0.40 0.46 0.38 0.41 0.35 0.39 0.25 0.19 0.15 0.09
0.01 0.00 0.01 0.01 0.02 0.03 0.02 0.02 0.01 0.02 0.10 0.20 0.24 0.44 0.54 0.42 0.35 0.32 0.30 0.21 0.14 0.09
0.03 0.01 0.02 0.01 0.02 0.01 0.02 0.02 0.03 0.01 0.02 0.09 0.20 0.29 0.53 0.43 0.31 0.29 0.27 0.22 0.17 0.09
0.04 0.03 0.03 0.03 0.02 0.02 0.02 0.02 0.03 0.04 0.01 0.04 0.14 0.28 0.47 0.54 0.30 0.28 0.28 0.21 0.16 0.14
0.07 0.09 0.04 0.02 0.02 0.02 0.01 0.01 0.02 0.04 0.03 0.01 0.03 0.16 0.38 0.54 0.41 0.24 0.28 0.30 0.20 0.16
0.15 0.08 0.03 0.02 0.03 0.03 0.02 0.01 0.01 0.03 0.04 0.02 0.01 0.07 0.30 0.36 0.41 0.30 0.23 0.31 0.27 0.20
0.13 0.06 0.02 0.02 0.03 0.03 0.03 0.02 0.01 0.01 0.06 0.06 0.02 0.08 0.15 0.20 0.28 0.38 0.34 0.24 0.30 0.30
0.11 0.06 0.04 0.03 0.02 0.02 0.02 0.01 0.01 0.01 0.03 0.06 0.02 0.03 0.06 0.10 0.16 0.31 0.47 0.44 0.34 0.25
0.09 0.06 0.03 0.03 0.03 0.03 0.03 0.03 0.03 0.04 0.03 0.05 0.03 0.08 0.06 0.05 0.06 0.09 0.15 0.20 0.20 0.16
0.10 0.08 0.04 0.04 0.05 0.06 0.04 0.04 0.04 0.05 0.06 0.05 0.04 0.08 0.05 0.04 0.02 0.04 0.04 0.04 0.07 0.08
0.10 0.11 0.09 0.08 0.11 0.13 0.08 0.07 0.07 0.06 0.05 0.03 0.06 0.09 0.08 0.09 0.02 0.02 0.02 0.03 0.03 0.04
0.32 0.24 0.19 0.14 0.11 0.11 0.14 0.14 0.12 0.10 0.07 0.04 0.05 0.10 0.08 0.08 0.02 0.03 0.05 0.04 0.04 0.04
0.47 0.44 0.35 0.28 0.22 0.16 0.14 0.13 0.15 0.18 0.17 0.17 0.09 0.14 0.11 0.08 0.03 0.04 0.02 0.02 0.03 0.05
0.57 0.60 0.52 0.34 0.25 0.23 0.18 0.17 0.16 0.15 0.17 0.16 0.15 0.18 0.16 0.14 0.09 0.08 0.06 0.06 0.05 0.04

GFSNIL_prec_precacc12_093.txt.gz
Total_Precipitation_Accumulation
0.06 0.02 0.03 0.02 0.01 0.00 0.00 0.00 0.00 0.01 0.10 0.16 0.31 0.40 0.36 0.42 0.37 0.45 0.36 0.30 0.26 0.12
0.08 0.02 0.01 0.01 0.01 0.01 0.00 0.00 0.00 0.00 0.02 0.09 0.20 0.42 0.53 0.46 0.42 0.42 0.47 0.36 0.30 0.17
0.13 0.08 0.03 0.01 0.02 0.01 0.01 0.01 0.01 0.00 0.01 0.03 0.13 0.26 0.54 0.53 0.47 0.52 0.48 0.46 0.40 0.25
0.17 0.12 0.07 0.03 0.02 0.01 0.01 0.00 0.01 0.01 0.00 0.02 0.08 0.21 0.44 0.65 0.44 0.50 0.51 0.42 0.40 0.30
0.20 0.15 0.06 0.03 0.02 0.02 0.01 0.01 0.00 0.01 0.01 0.00 0.02 0.14 0.37 0.65 0.67 0.48 0.47 0.50 0.40 0.35
0.26 0.12 0.05 0.02 0.02 0.03 0.02 0.02 0.01 0.01 0.02 0.01 0.00 0.07 0.31 0.46 0.64 0.58 0.42 0.47 0.51 0.42
0.26 0.10 0.04 0.02 0.02 0.02 0.02 0.01 0.01 0.02 0.06 0.06 0.01 0.09 0.18 0.26 0.43 0.58 0.56 0.49 0.55 0.50
0.40 0.11 0.03 0.03 0.02 0.01 0.01 0.01 0.01 0.01 0.03 0.06 0.02 0.03 0.09 0.16 0.25 0.46 0.60 0.57 0.52 0.33
0.72 0.12 0.03 0.03 0.03 0.02 0.03 0.03 0.03 0.03 0.04 0.06 0.03 0.08 0.06 0.08 0.10 0.12 0.22 0.27 0.28 0.27
0.49 0.32 0.10 0.06 0.04 0.04 0.03 0.03 0.03 0.05 0.06 0.06 0.05 0.08 0.09 0.09 0.05 0.07 0.06 0.10 0.14 0.13
0.33 0.34 0.14 0.10 0.10 0.12 0.07 0.05 0.05 0.05 0.05 0.04 0.07 0.09 0.11 0.11 0.03 0.04 0.07 0.06 0.05 0.06
0.49 0.40 0.26 0.21 0.15 0.14 0.14 0.14 0.13 0.11 0.08 0.06 0.07 0.13 0.12 0.11 0.02 0.03 0.05 0.06 0.06 0.05
0.61 0.62 0.63 0.51 0.33 0.23 0.20 0.17 0.17 0.19 0.18 0.19 0.10 0.17 0.16 0.13 0.05 0.06 0.03 0.03 0.07 0.09
0.66 0.74 0.69 0.57 0.51 0.45 0.34 0.28 0.24 0.21 0.21 0.20 0.19 0.23 0.23 0.22 0.16 0.17 0.14 0.09 0.09 0.13

GFSNIL_prec_precacc12_099.txt.gz
Total_Precipitation_Accumulation
0.18 0.16 0.14 0.12 0.13 0.06 0.02 0.03 0.05 0.02 0.04 0.03 0.03 0.08 0.16 0.20 0.21 0.34 0.30 0.28 0.25 0.15
0.24 0.25 0.24 0.25 0.29 0.25 0.14 0.11 0.12 0.03 0.03 0.03 0.05 0.11 0.34 0.33 0.31 0.35 0.41 0.32 0.29 0.19
0.31 0.23 0.21 0.22 0.28 0.26 0.23 0.16 0.10 0.04 0.02 0.02 0.03 0.09 0.27 0.35 0.35 0.45 0.49 0.51 0.46 0.31
0.38 0.28 0.21 0.20 0.14 0.22 0.16 0.16 0.04 0.02 0.01 0.01 0.02 0.07 0.19 0.37 0.34 0.46 0.58 0.58 0.55 0.43
0.36 0.40 0.20 0.15 0.11 0.07 0.06 0.04 0.01 0.01 0.01 0.01 0.01 0.06 0.19 0.39 0.52 0.47 0.49 0.57 0.62 0.65
0.40 0.33 0.20 0.11 0.09 0.06 0.03 0.02 0.02 0.01 0.00 0.00 0.00 0.03 0.18 0.30 0.55 0.58 0.56 0.52 0.62 0.60
0.62 0.51 0.26 0.16 0.09 0.05 0.03 0.01 0.01 0.01 0.01 0.01 0.00 0.04 0.10 0.18 0.34 0.49 0.60 0.64 0.66 0.72
0.80 0.63 0.63 0.50 0.27 0.06 0.02 0.01 0.01 0.01 0.01 0.01 0.00 0.02 0.06 0.14 0.21 0.42 0.53 0.57 0.65 0.57
1.62 0.94 0.89 0.98 0.93 0.39 0.05 0.03 0.01 0.01 0.02 0.03 0.02 0.05 0.04 0.08 0.12 0.15 0.23 0.31 0.42 0.63
0.95 1.37 0.96 1.03 1.02 0.97 0.24 0.04 0.04 0.03 0.03 0.03 0.03 0.06 0.07 0.09 0.07 0.11 0.08 0.13 0.25 0.37
0.49 0.91 1.21 0.87 0.80 0.72 0.31 0.08 0.06 0.05 0.04 0.03 0.04 0.07 0.10 0.12 0.04 0.10 0.14 0.10 0.10 0.15
0.72 0.78 0.87 1.09 0.86 0.70 0.39 0.10 0.05 0.04 0.04 0.03 0.04 0.07 0.10 0.10 0.02 0.03 0.06 0.12 0.13 0.11
0.57 0.80 1.01 1.10 1.07 0.88 0.65 0.30 0.15 0.10 0.07 0.10 0.05 0.11 0.13 0.13 0.06 0.09 0.06 0.06 0.13 0.19
0.33 0.52 0.68 0.82 0.90 0.98 0.92 0.68 0.42 0.32 0.26 0.21 0.24 0.26 0.25 0.25 0.17 0.19 0.18 0.15 0.15 0.19

GFSNIL_prec_precacc12_102.txt.gz
Total_Precipitation_Accumulation
0.19 0.18 0.16 0.14 0.14 0.07 0.02 0.03 0.05 0.02 0.04 0.06 0.09 0.11 0.08 0.06 0.07 0.11 0.18 0.17 0.16 0.11
0.28 0.30 0.31 0.27 0.33 0.29 0.15 0.11 0.12 0.04 0.10 0.19 0.17 0.15 0.15 0.12 0.12 0.15 0.22 0.21 0.22 0.16
0.35 0.26 0.24 0.24 0.32 0.33 0.30 0.19 0.17 0.12 0.14 0.17 0.21 0.22 0.17 0.14 0.21 0.31 0.31 0.37 0.36 0.27
0.43 0.32 0.24 0.24 0.19 0.26 0.19 0.21 0.12 0.11 0.11 0.16 0.17 0.14 0.12 0.16 0.18 0.32 0.43 0.45 0.45 0.33
0.49 0.49 0.33 0.24 0.21 0.16 0.12 0.09 0.06 0.06 0.09 0.08 0.06 0.03 0.07 0.20 0.31 0.33 0.32 0.42 0.53 0.56
0.44 0.45 0.40 0.34 0.24 0.19 0.05 0.02 0.01 0.02 0.02 0.04 0.04 0.02 0.03 0.12 0.30 0.44 0.43 0.36 0.50 0.50
0.76 0.66 0.41 0.32 0.22 0.13 0.07 0.01 0.01 0.01 0.01 0.01 0.01 0.02 0.06 0.08 0.18 0.32 0.45 0.53 0.50 0.53
0.92 0.78 0.77 0.60 0.39 0.17 0.05 0.02 0.01 0.01 0.00 0.01 0.00 0.01 0.05 0.12 0.16 0.24 0.29 0.38 0.50 0.48
1.64 0.93 0.91 1.06 1.02 0.63 0.18 0.08 0.03 0.01 0.01 0.01 0.01 0.03 0.03 0.06 0.08 0.11 0.18 0.25 0.38 0.60
1.06 1.42 1.05 1.17 1.28 1.40 0.97 0.48 0.19 0.04 0.02 0.02 0.02 0.04 0.06 0.08 0.05 0.08 0.06 0.12 0.24 0.36
0.53 0.93 1.24 0.90 0.88 0.93 0.95 0.80 0.45 0.13 0.04 0.02 0.03 0.05 0.07 0.10 0.04 0.10 0.13 0.09 0.09 0.15
0.57 0.67 0.84 1.12 0.97 0.94 0.78 0.63 0.41 0.16 0.05 0.02 0.03 0.05 0.07 0.08 0.01 0.02 0.05 0.11 0.13 0.11
0.38 0.56 0.82 1.07 1.22 1.16 1.04 0.81 0.58 0.27 0.07 0.06 0.02 0.06 0.09 0.10 0.04 0.06 0.04 0.04 0.11 0.19
0.13 0.25 0.44 0.70 0.96 1.17 1.29 1.15 0.81 0.59 0.35 0.21 0.18 0.12 0.13 0.15 0.10 0.13 0.11 0.10 0.11 0.17

GFSNIL_prec_precacc12_105.txt.gz
Total_Precipitation_Accumulation
0.14 0.16 0.15 0.13 0.19 0.13 0.03 0.04 0.08 0.07 0.09 0.11 0.12 0.10 0.08 0.06 0.07 0.07 0.07 0.06 0.05 0.07
0.22 0.30 0.33 0.29 0.41 0.35 0.19 0.13 0.15 0.08 0.19 0.26 0.23 0.17 0.15 0.07 0.07 0.07 0.07 0.07 0.08 0.10
0.30 0.32 0.41 0.37 0.40 0.37 0.33 0.22 0.20 0.16 0.20 0.21 0.31 0.37 0.20 0.10 0.10 0.12 0.11 0.14 0.15 0.13
0.34 0.34 0.31 0.36 0.32 0.33 0.24 0.27 0.19 0.17 0.15 0.17 0.23 0.37 0.41 0.29 0.23 0.16 0.21 0.24 0.22 0.18
0.42 0.49 0.40 0.34 0.33 0.22 0.17 0.18 0.16 0.06 0.10 0.09 0.12 0.20 0.58 0.58 0.44 0.20 0.13 0.22 0.34 0.38
0.37 0.50 0.49 0.45 0.36 0.31 0.14 0.07 0.09 0.05 0.03 0.05 0.05 0.05 0.07 0.31 0.35 0.25 0.25 0.19 0.26 0.30
0.73 0.74 0.56 0.49 0.46 0.37 0.30 0.08 0.07 0.05 0.03 0.02 0.03 0.05 0.05 0.04 0.07 0.13 0.24 0.29 0.27 0.35
0.78 0.99 1.16 1.23 0.97 0.43 0.38 0.19 0.08 0.05 0.01 0.01 0.00 0.01 0.02 0.05 0.05 0.06 0.15 0.23 0.30 0.35
1.07 0.95 1.03 1.29 1.39 0.88 0.46 0.35 0.10 0.06 0.03 0.01 0.00 0.03 0.03 0.04 0.05 0.08 0.12 0.18 0.30 0.49
0.80 1.35 1.09 1.22 1.39 1.59 1.13 0.75 0.54 0.18 0.05 0.02 0.01 0.03 0.03 0.05 0.02 0.05 0.04 0.06 0.15 0.30
0.36 0.83 1.31 0.96 0.91 0.96 1.14 1.16 0.96 0.45 0.17 0.05 0.02 0.05 0.04 0.07 0.03 0.08 0.09 0.06 0.06 0.13
0.42 0.53 0.77 1.06 0.93 0.94 0.81 0.80 0.87 0.77 0.46 0.24 0.11 0.12 0.10 0.06 0.01 0.02 0.05 0.08 0.11 0.10
0.26 0.40 0.54 0.86 1.16 1.21 1.15 0.93 0.76 0.67 0.54 0.41 0.22 0.16 0.10 0.07 0.02 0.05 0.05 0.04 0.08 0.16
0.03 0.11 0.28 0.48 0.77 1.09 1.36 1.37 1.08 0.95 0.78 0.55 0.45 0.25 0.14 0.11 0.04 0.05 0.05 0.08 0.08 0.09

GFSNIL_prec_precacc12_111.txt.gz
Total_Precipitation_Accumulation
0.02 0.04 0.03 0.03 0.06 0.09 0.08 0.09 0.26 0.62 0.57 0.46 0.40 0.42 0.51 0.51 0.48 0.61 0.76 0.33 0.16 0.09
0.08 0.11 0.14 0.08 0.15 0.12 0.10 0.09 0.10 0.15 0.36 0.45 0.44 0.35 0.42 0.36 0.29 0.24 0.43 0.45 0.24 0.22
0.12 0.20 0.26 0.22 0.21 0.17 0.14 0.15 0.19 0.18 0.37 0.43 0.53 0.51 0.30 0.17 0.16 0.18 0.28 0.47 0.49 0.27
0.11 0.21 0.21 0.25 0.33 0.30 0.30 0.30 0.35 0.35 0.46 0.36 0.46 0.59 0.55 0.32 0.34 0.34 0.40 0.39 0.35 0.26
0.22 0.23 0.27 0.31 0.40 0.36 0.31 0.44 0.57 0.45 0.50 0.42 0.34 0.38 0.75 0.68 0.47 0.40 0.59 0.73 0.55 0.40
0.13 0.27 0.32 0.36 0.35 0.36 0.26 0.28 0.52 0.59 0.63 0.68 0.46 0.31 0.23 0.42 0.49 0.31 0.39 0.52 0.63 0.51
0.30 0.31 0.33 0.36 0.42 0.37 0.34 0.16 0.24 0.46 0.55 0.81 0.83 0.66 0.27 0.17 0.23 0.38 0.26 0.18 0.13 0.17
0.38 0.51 0.64 0.86 0.96 0.63 0.54 0.37 0.28 0.25 0.27 0.56 0.88 0.43 0.27 0.13 0.12 0.20 0.26 0.10 0.07 0.06
0.16 0.13 0.22 0.40 0.63 0.76 0.70 0.76 0.51 0.54 0.36 0.26 0.45 0.55 0.30 0.33 0.16 0.17 0.10 0.19 0.11 0.09
0.30 0.30 0.29 0.32 0.45 0.74 1.12 0.94 0.93 0.61 0.47 0.37 0.31 0.61 0.39 0.38 0.18 0.11 0.07 0.05 0.13 0.06
0.17 0.24 0.29 0.28 0.28 0.40 0.94 1.20 1.07 0.73 0.55 0.39 0.34 0.35 0.59 0.47 0.21 0.10 0.09 0.07 0.05 0.05
0.18 0.16 0.15 0.17 0.24 0.38 0.51 0.79 0.99 0.91 0.60 0.50 0.44 0.50 0.47 0.47 0.28 0.18 0.07 0.04 0.06 0.07
0.12 0.14 0.16 0.27 0.41 0.54 0.69 0.84 0.79 0.81 0.82 0.84 0.74 0.73 0.65 0.67 0.42 0.18 0.15 0.11 0.06 0.13
0.01 0.03 0.06 0.12 0.32 0.54 0.81 1.01 0.97 0.92 0.89 0.81 0.87 0.92 0.95 0.79 0.60 0.48 0.28 0.17 0.12 0.09

GFSNIL_prec_precacc12_114.txt.gz
Total_Precipitation_Accumulation
0.00 0.01 0.01 0.01 0.05 0.07 0.07 0.08 0.26 0.61 0.57 0.42 0.33 0.35 0.51 0.58 0.61 0.81 0.94 0.42 0.24 0.16
0.03 0.06 0.06 0.06 0.11 0.08 0.09 0.08 0.10 0.14 0.30 0.30 0.30 0.24 0.34 0.40 0.35 0.34 0.54 0.47 0.30 0.32
0.06 0.17 0.23 0.20 0.16 0.10 0.07 0.12 0.13 0.10 0.25 0.28 0.35 0.33 0.19 0.22 0.28 0.29 0.45 0.68 0.60 0.36
0.05 0.15 0.17 0.19 0.28 0.27 0.28 0.27 0.28 0.27 0.36 0.23 0.31 0.51 0.54 0.40 0.50 0.50 0.48 0.66 0.46 0.30
0.06 0.08 0.12 0.21 0.29 0.27 0.25 0.39 0.51 0.40 0.42 0.39 0.37 0.48 0.81 0.78 0.59 0.51 0.64 0.82 0.72 0.45
0.05 0.09 0.11 0.13 0.19 0.22 0.22 0.27 0.51 0.58 0.61 0.66 0.48 0.38 0.33 0.58 0.72 0.48 0.46 0.62 0.78 0.64
0.12 0.13 0.18 0.19 0.27 0.29 0.29 0.16 0.24 0.45 0.54 0.80 0.83 0.78 0.60 0.55 0.45 0.58 0.43 0.34 0.31 0.43
0.23 0.33 0.49 0.75 0.83 0.52 0.50 0.36 0.28 0.24 0.28 0.59 0.95 0.58 0.44 0.33 0.53 0.55 0.56 0.32 0.23 0.22
0.09 0.11 0.19 0.32 0.53 0.51 0.56 0.70 0.49 0.54 0.36 0.26 0.48 0.69 0.46 0.44 0.36 0.52 0.47 0.37 0.21 0.17
0.15 0.20 0.21 0.17 0.18 0.31 0.37 0.49 0.78 0.59 0.48 0.37 0.32 0.65 0.49 0.53 0.66 0.53 0.33 0.23 0.20 0.08
0.13 0.22 0.26 0.26 0.20 0.17 0.29 0.47 0.67 0.65 0.56 0.41 0.39 0.40 0.66 0.67 0.66 0.60 0.40 0.30 0.14 0.09
0.15 0.15 0.12 0.13 0.13 0.15 0.13 0.25 0.65 0.81 0.62 0.54 0.51 0.60 0.57 0.61 0.53 0.73 0.59 0.35 0.26 0.19
0.08 0.11 0.12 0.15 0.17 0.22 0.26 0.32 0.36 0.62 0.79 0.84 0.77 0.80 0.75 0.77 0.60 0.46 0.56 0.43 0.27 0.26
0.00 0.01 0.03 0.04 0.10 0.20 0.31 0.41 0.47 0.56 0.70 0.72 0.84 0.95 1.01 0.89 0.80 0.78 0.54 0.45 0.42 0.30

GFSNIL_prec_precacc12_117.txt.gz
Total_Precipitation_Accumulation
0.00 0.01 0.00 0.00 0.00 0.01 0.06 0.07 0.24 0.56 0.51 0.37 0.29 0.34 0.50 0.57 0.60 0.82 0.96 0.44 0.27 0.18
0.01 0.03 0.03 0.03 0.02 0.01 0.05 0.06 0.07 0.11 0.20 0.23 0.23 0.20 0.30 0.38 0.34 0.36 0.57 0.50 0.31 0.32
0.01 0.03 0.04 0.07 0.09 0.06 0.04 0.09 0.10 0.06 0.19 0.24 0.24 0.17 0.13 0.15 0.21 0.26 0.46 0.71 0.63 0.38
0.01 0.04 0.05 0.07 0.16 0.19 0.23 0.21 0.21 0.21 0.33 0.22 0.27 0.28 0.23 0.15 0.31 0.44 0.50 0.67 0.49 0.30
0.00 0.01 0.02 0.11 0.17 0.20 0.20 0.29 0.41 0.40 0.41 0.38 0.31 0.32 0.27 0.23 0.20 0.39 0.64 0.85 0.80 0.48
0.00 0.00 0.00 0.01 0.06 0.10 0.14 0.22 0.44 0.54 0.60 0.65 0.46 0.34 0.27 0.29 0.48 0.43 0.45 0.63 0.81 0.67
0.01 0.01 0.01 0.02 0.04 0.05 0.06 0.08 0.18 0.40 0.53 0.79 0.81 0.74 0.57 0.53 0.42 0.59 0.46 0.38 0.33 0.43
0.07 0.07 0.11 0.12 0.25 0.26 0.17 0.18 0.20 0.20 0.27 0.58 0.95 0.58 0.45 0.33 0.53 0.55 0.57 0.54 0.53 0.38
0.01 0.03 0.06 0.09 0.17 0.26 0.28 0.43 0.41 0.49 0.33 0.26 0.48 0.70 0.47 0.46 0.38 0.56 0.63 0.57 0.43 0.64
0.02 0.03 0.10 0.11 0.08 0.12 0.22 0.22 0.43 0.44 0.45 0.37 0.34 0.68 0.51 0.60 0.73 0.58 0.42 0.53 0.52 0.35
0.06 0.08 0.13 0.16 0.15 0.13 0.11 0.12 0.17 0.35 0.45 0.39 0.43 0.44 0.72 0.74 0.73 0.67 0.47 0.40 0.44 0.45
0.12 0.13 0.11 0.12 0.12 0.13 0.08 0.08 0.19 0.21 0.21 0.36 0.49 0.62 0.65 0.72 0.65 0.81 0.68 0.48 0.47 0.39
0.06 0.09 0.11 0.12 0.12 0.10 0.10 0.16 0.16 0.20 0.32 0.48 0.60 0.73 0.77 0.86 0.72 0.58 0.71 0.63 0.54 0.63
0.00 0.01 0.02 0.02 0.03 0.06 0.08 0.09 0.11 0.14 0.23 0.35 0.53 0.77 0.94 0.86 0.82 0.86 0.65 0.59 0.64 0.61

GFSNIL_prec_precacc12_120.txt.gz
Total_Precipitation_Accumulation
0.00 0.00 0.00 0.00 0.00 0.00 0.00 0.00 0.02 0.32 0.42 0.34 0.26 0.22 0.28 0.32 0.45 0.71 0.74 0.32 0.21 0.15
0.00 0.00 0.00 0.01 0.01 0.01 0.01 0.00 0.01 0.07 0.16 0.18 0.15 0.13 0.21 0.30 0.28 0.33 0.53 0.43 0.20 0.20
0.00 0.00 0.00 0.01 0.03 0.02 0.01 0.01 0.03 0.04 0.18 0.22 0.20 0.14 0.10 0.14 0.19 0.21 0.36 0.56 0.47 0.28
0.00 0.00 0.00 0.01 0.02 0.03 0.06 0.06 0.07 0.09 0.26 0.18 0.24 0.20 0.17 0.14 0.19 0.23 0.32 0.52 0.36 0.22
0.00 0.00 0.00 0.00 0.00 0.01 0.02 0.03 0.08 0.15 0.32 0.29 0.27 0.24 0.22 0.21 0.17 0.20 0.31 0.45 0.57 0.36
0.00 0.00 0.00 0.00 0.00 0.00 0.00 0.01 0.07 0.12 0.22 0.39 0.37 0.32 0.24 0.25 0.35 0.34 0.38 0.35 0.38 0.54
0.00 0.00 0.00 0.00 0.00 0.00 0.00 0.01 0.06 0.14 0.20 0.46 0.64 0.70 0.56 0.53 0.35 0.33 0.39 0.37 0.36 0.49
0.00 0.00 0.00 0.00 0.00 0.00 0.00 0.00 0.01 0.05 0.11 0.34 0.80 0.50 0.39 0.31 0.48 0.44 0.39 0.48 0.52 0.39
0.00 0.00 0.00 0.00 0.00 0.00 0.01 0.03 0.10 0.09 0.13 0.11 0.40 0.62 0.39 0.41 0.34 0.52 0.58 0.39 0.37 0.63
0.01 0.01 0.02 0.02 0.02 0.03 0.02 0.02 0.05 0.10 0.18 0.23 0.24 0.53 0.38 0.55 0.71 0.57 0.43 0.53 0.52 0.36
0.03 0.04 0.04 0.03 0.04 0.06 0.07 0.07 0.09 0.15 0.15 0.16 0.31 0.32 0.62 0.65 0.73 0.69 0.51 0.47 0.53 0.54
0.04 0.05 0.06 0.06 0.06 0.08 0.07 0.06 0.10 0.11 0.10 0.15 0.26 0.46 0.52 0.63 0.67 0.88 0.76 0.56 0.55 0.47
0.02 0.03 0.04 0.06 0.08 0.08 0.07 0.09 0.06 0.05 0.08 0.13 0.20 0.34 0.46 0.62 0.63 0.58 0.75 0.68 0.61 0.73
0.00 0.00 0.00 0.00 0.01 0.02 0.04 0.03 0.02 0.03 0.04 0.08 0.15 0.25 0.40 0.49 0.60 0.73 0.59 0.59 0.67 0.69

GFSNIL_prec_precacc12_126.txt.gz
Total_Precipitation_Accumulation
0.01 0.00 0.01 0.01 0.01 0.02 0.01 0.00 0.00 0.00 0.00 0.00 0.00 0.00 0.00 0.01 0.02 0.04 0.05 0.06 0.06 0.06
0.00 0.00 0.00 0.01 0.01 0.01 0.01 0.00 0.00 0.00 0.00 0.00 0.00 0.00 0.01 0.02 0.03 0.04 0.06 0.06 0.05 0.05
0.00 0.00 0.00 0.00 0.00 0.00 0.00 0.00 0.00 0.00 0.00 0.00 0.00 0.01 0.01 0.01 0.01 0.03 0.04 0.05 0.09 0.08
0.00 0.00 0.00 0.00 0.00 0.00 0.00 0.00 0.00 0.00 0.00 0.01 0.01 0.01 0.01 0.01 0.00 0.01 0.05 0.04 0.07 0.05
0.00 0.00 0.00 0.00 0.00 0.00 0.00 0.00 0.00 0.00 0.00 0.00 0.00 0.00 0.01 0.01 0.01 0.01 0.03 0.07 0.12 0.08
0.00 0.00 0.00 0.00 0.00 0.00 0.00 0.00 0.00 0.00 0.00 0.00 0.00 0.00 0.00 0.02 0.05 0.05 0.04 0.06 0.09 0.10
0.00 0.00 0.00 0.00 0.00 0.00 0.00 0.00 0.00 0.00 0.00 0.01 0.00 0.00 0.00 0.01 0.03 0.04 0.08 0.11 0.13 0.15
0.00 0.00 0.00 0.00 0.00 0.00 0.00 0.00 0.00 0.00 0.00 0.00 0.01 0.02 0.01 0.01 0.00 0.01 0.03 0.24 0.33 0.20
0.00 0.00 0.00 0.00 0.00 0.00 0.00 0.00 0.00 0.00 0.00 0.01 0.01 0.02 0.02 0.03 0.03 0.05 0.18 0.21 0.23 0.48
0.00 0.00 0.00 0.00 0.00 0.00 0.00 0.00 0.00 0.01 0.01 0.02 0.03 0.03 0.03 0.08 0.08 0.07 0.13 0.34 0.35 0.29
0.00 0.00 0.00 0.00 0.00 0.00 0.00 0.01 0.02 0.02 0.03 0.03 0.06 0.06 0.07 0.09 0.11 0.12 0.14 0.20 0.41 0.47
0.00 0.00 0.00 0.00 0.00 0.00 0.00 0.00 0.01 0.02 0.03 0.05 0.09 0.12 0.15 0.15 0.16 0.16 0.17 0.22 0.31 0.30
0.00 0.00 0.00 0.00 0.00 0.00 0.00 0.00 0.00 0.00 0.01 0.02 0.04 0.06 0.08 0.11 0.13 0.16 0.21 0.27 0.35 0.50
0.00 0.00 0.00 0.00 0.00 0.00 0.00 0.00 0.00 0.00 0.00 0.00 0.00 0.00 0.01 0.01 0.04 0.10 0.14 0.19 0.28 0.43

GFSNIL_prec_precacc12_129.txt.gz
Total_Precipitation_Accumulation
0.01 0.00 0.01 0.01 0.01 0.02 0.02 0.01 0.01 0.01 0.01 0.00 0.00 0.00 0.00 0.00 0.01 0.02 0.02 0.03 0.03 0.03
0.00 0.00 0.00 0.01 0.01 0.01 0.02 0.01 0.01 0.02 0.02 0.01 0.00 0.00 0.00 0.01 0.01 0.01 0.02 0.02 0.03 0.03
0.00 0.00 0.00 0.00 0.00 0.00 0.00 0.00 0.00 0.00 0.00 0.00 0.00 0.00 0.01 0.01 0.01 0.01 0.02 0.02 0.03 0.04
0.00 0.00 0.00 0.00 0.00 0.00 0.00 0.00 0.00 0.00 0.00 0.00 0.00 0.00 0.00 0.00 0.00 0.01 0.02 0.03 0.03 0.04
0.00 0.00 0.00 0.00 0.00 0.00 0.00 0.00 0.00 0.00 0.00 0.00 0.00 0.00 0.00 0.00 0.00 0.01 0.01 0.03 0.04 0.04
0.00 0.00 0.00 0.00 0.00 0.00 0.00 0.00 0.00 0.00 0.00 0.00 0.00 0.00 0.00 0.00 0.00 0.01 0.02 0.04 0.06 0.06
0.00 0.00 0.00 0.00 0.00 0.00 0.00 0.00 0.00 0.00 0.00 0.01 0.00 0.00 0.00 0.00 0.00 0.00 0.02 0.04 0.08 0.12
0.00 0.00 0.00 0.00 0.00 0.00 0.00 0.00 0.00 0.00 0.00 0.00 0.00 0.01 0.00 0.00 0.00 0.00 0.00 0.00 0.01 0.04
0.00 0.00 0.00 0.00 0.00 0.00 0.00 0.00 0.00 0.00 0.00 0.00 0.01 0.01 0.00 0.00 0.00 0.00 0.00 0.00 0.00 0.01
0.00 0.00 0.00 0.00 0.00 0.00 0.00 0.00 0.00 0.00 0.00 0.00 0.00 0.00 0.00 0.00 0.01 0.01 0.03 0.04 0.03 0.02
0.00 0.00 0.00 0.00 0.00 0.00 0.00 0.00 0.01 0.00 0.00 0.00 0.01 0.00 0.00 0.01 0.03 0.05 0.07 0.10 0.11 0.11
0.00 0.00 0.00 0.00 0.00 0.00 0.00 0.00 0.00 0.01 0.01 0.00 0.00 0.00 0.01 0.02 0.04 0.07 0.09 0.09 0.09 0.10
0.00 0.00 0.00 0.00 0.00 0.00 0.00 0.00 0.00 0.00 0.00 0.00 0.00 0.00 0.00 0.00 0.01 0.03 0.05 0.05 0.08 0.11
0.00 0.00 0.00 0.00 0.00 0.00 0.00 0.00 0.00 0.00 0.00 0.00 0.00 0.00 0.00 0.00 0.01 0.01 0.01 0.02 0.04 0.10

GFSNIL_prec_precacc12_132.txt.gz
Total_Precipitation_Accumulation
0.01 0.00 0.01 0.01 0.01 0.02 0.02 0.01 0.01 0.01 0.01 0.00 0.00 0.00 0.00 0.00 0.01 0.01 0.01 0.01 0.01 0.02
0.00 0.00 0.00 0.01 0.01 0.01 0.02 0.01 0.01 0.02 0.02 0.01 0.00 0.00 0.01 0.01 0.00 0.01 0.01 0.01 0.01 0.02
0.00 0.00 0.00 0.00 0.00 0.00 0.00 0.00 0.00 0.00 0.00 0.00 0.00 0.00 0.00 0.00 0.00 0.00 0.00 0.01 0.01 0.02
0.00 0.00 0.00 0.00 0.00 0.00 0.00 0.00 0.00 0.00 0.00 0.00 0.00 0.00 0.00 0.00 0.00 0.00 0.01 0.01 0.02 0.03
0.00 0.00 0.00 0.00 0.00 0.00 0.00 0.00 0.00 0.00 0.00 0.00 0.00 0.00 0.00 0.00 0.00 0.00 0.01 0.01 0.02 0.04
0.00 0.00 0.00 0.00 0.00 0.00 0.00 0.00 0.00 0.00 0.00 0.00 0.00 0.00 0.00 0.00 0.00 0.00 0.01 0.02 0.03 0.04
0.00 0.00 0.00 0.00 0.00 0.00 0.00 0.00 0.00 0.00 0.00 0.01 0.00 0.00 0.00 0.00 0.00 0.00 0.00 0.01 0.01 0.03
0.00 0.00 0.00 0.00 0.00 0.00 0.00 0.00 0.00 0.00 0.00 0.00 0.00 0.01 0.00 0.00 0.00 0.00 0.00 0.00 0.00 0.01
0.00 0.00 0.00 0.00 0.00 0.00 0.00 0.00 0.00 0.00 0.00 0.00 0.00 0.00 0.00 0.00 0.00 0.00 0.00 0.00 0.00 0.00
0.00 0.00 0.00 0.00 0.00 0.00 0.00 0.00 0.00 0.00 0.00 0.00 0.00 0.00 0.00 0.00 0.00 0.00 0.01 0.01 0.01 0.00
0.00 0.00 0.00 0.00 0.00 0.00 0.00 0.01 0.01 0.00 0.00 0.00 0.00 0.00 0.00 0.00 0.00 0.00 0.00 0.01 0.01 0.02
0.00 0.00 0.00 0.00 0.00 0.00 0.00 0.00 0.00 0.00 0.00 0.00 0.00 0.00 0.00 0.00 0.00 0.00 0.00 0.00 0.01 0.01
0.00 0.00 0.00 0.00 0.00 0.00 0.00 0.00 0.00 0.00 0.00 0.00 0.00 0.00 0.00 0.00 0.00 0.00 0.00 0.00 0.00 0.00
0.00 0.00 0.00 0.00 0.00 0.00 0.00 0.00 0.00 0.00 0.00 0.00 0.00 0.00 0.00 0.00 0.00 0.00 0.00 0.00 0.01 0.01

GFSNIL_prec_precacc12_135.txt.gz
Total_Precipitation_Accumulation
0.00 0.00 0.00 0.01 0.01 0.02 0.02 0.01 0.01 0.01 0.01 0.00 0.00 0.00 0.00 0.00 0.00 0.01 0.01 0.00 0.01 0.01
0.00 0.00 0.00 0.01 0.01 0.01 0.02 0.01 0.01 0.02 0.02 0.01 0.00 0.00 0.01 0.01 0.00 0.00 0.00 0.01 0.00 0.01
0.00 0.00 0.00 0.00 0.00 0.00 0.00 0.00 0.00 0.00 0.00 0.00 0.00 0.00 0.01 0.00 0.00 0.00 0.00 0.00 0.00 0.01
0.00 0.00 0.00 0.00 0.00 0.00 0.00 0.00 0.00 0.00 0.00 0.00 0.00 0.00 0.01 0.01 0.01 0.01 0.01 0.01 0.00 0.02
0.00 0.00 0.00 0.00 0.00 0.00 0.00 0.00 0.00 0.00 0.00 0.00 0.00 0.00 0.01 0.01 0.00 0.00 0.01 0.01 0.01 0.02
0.00 0.00 0.00 0.00 0.00 0.00 0.00 0.00 0.00 0.00 0.00 0.00 0.00 0.00 0.00 0.00 0.00 0.00 0.00 0.01 0.01 0.02
0.00 0.00 0.00 0.00 0.00 0.00 0.00 0.00 0.00 0.00 0.00 0.00 0.00 0.00 0.00 0.00 0.00 0.00 0.00 0.00 0.00 0.01
0.00 0.00 0.00 0.00 0.00 0.00 0.00 0.00 0.00 0.00 0.00 0.00 0.00 0.00 0.00 0.00 0.00 0.00 0.00 0.00 0.00 0.00
0.00 0.00 0.00 0.00 0.00 0.00 0.00 0.00 0.00 0.00 0.00 0.00 0.00 0.00 0.00 0.00 0.00 0.00 0.00 0.00 0.00 0.00
0.00 0.00 0.00 0.00 0.00 0.00 0.00 0.00 0.00 0.00 0.00 0.00 0.00 0.00 0.00 0.00 0.00 0.00 0.00 0.00 0.01 0.00
0.00 0.00 0.00 0.00 0.00 0.00 0.00 0.01 0.00 0.00 0.00 0.00 0.00 0.00 0.00 0.00 0.00 0.00 0.00 0.01 0.01 0.01
0.00 0.00 0.00 0.00 0.00 0.00 0.00 0.00 0.00 0.00 0.00 0.00 0.00 0.00 0.00 0.00 0.00 0.00 0.00 0.00 0.00 0.00
0.00 0.00 0.00 0.00 0.00 0.00 0.00 0.00 0.00 0.00 0.00 0.00 0.00 0.00 0.00 0.00 0.00 0.00 0.00 0.00 0.00 0.00
0.00 0.00 0.00 0.00 0.00 0.00 0.00 0.00 0.01 0.00 0.00 0.00 0.00 0.00 0.00 0.00 0.00 0.00 0.00 0.00 0.00 0.00

GFSNIL_prec_precacc12_138.txt.gz
Total_Precipitation_Accumulation
0.00 0.00 0.00 0.00 0.00 0.00 0.01 0.01 0.01 0.01 0.01 0.00 0.00 0.00 0.00 0.00 0.00 0.00 0.00 0.00 0.00 0.00
0.00 0.00 0.00 0.00 0.00 0.00 0.00 0.01 0.01 0.02 0.02 0.01 0.00 0.00 0.01 0.00 0.00 0.00 0.00 0.00 0.00 0.01
0.00 0.00 0.00 0.00 0.00 0.00 0.00 0.00 0.00 0.00 0.00 0.00 0.00 0.00 0.01 0.01 0.01 0.01 0.01 0.01 0.01 0.01
0.00 0.00 0.00 0.00 0.00 0.00 0.00 0.00 0.00 0.00 0.00 0.00 0.00 0.00 0.01 0.01 0.02 0.03 0.05 0.02 0.03 0.02
0.00 0.00 0.00 0.00 0.00 0.00 0.00 0.00 0.00 0.00 0.00 0.00 0.00 0.00 0.01 0.01 0.00 0.00 0.01 0.01 0.01 0.02
0.00 0.00 0.00 0.00 0.00 0.00 0.00 0.00 0.00 0.00 0.00 0.00 0.00 0.00 0.00 0.00 0.00 0.00 0.00 0.01 0.00 0.01
0.00 0.00 0.00 0.00 0.00 0.00 0.00 0.00 0.00 0.00 0.00 0.00 0.00 0.00 0.00 0.00 0.00 0.00 0.00 0.00 0.00 0.00
0.00 0.00 0.00 0.00 0.00 0.00 0.00 0.00 0.00 0.00 0.00 0.00 0.00 0.00 0.00 0.00 0.00 0.00 0.00 0.00 0.00 0.00
0.00 0.00 0.00 0.00 0.00 0.00 0.00 0.00 0.00 0.00 0.00 0.00 0.00 0.00 0.00 0.00 0.00 0.00 0.00 0.00 0.00 0.00
0.00 0.00 0.00 0.00 0.00 0.00 0.00 0.00 0.00 0.00 0.00 0.00 0.00 0.00 0.00 0.00 0.00 0.00 0.00 0.00 0.00 0.00
0.00 0.00 0.00 0.00 0.00 0.00 0.00 0.00 0.00 0.00 0.00 0.00 0.00 0.00 0.00 0.00 0.00 0.00 0.00 0.00 0.00 0.00
0.00 0.00 0.00 0.00 0.00 0.00 0.00 0.00 0.00 0.00 0.00 0.00 0.00 0.00 0.00 0.00 0.00 0.00 0.00 0.00 0.00 0.00
0.00 0.00 0.00 0.00 0.00 0.00 0.00 0.00 0.00 0.00 0.00 0.00 0.00 0.00 0.00 0.00 0.00 0.00 0.00 0.00 0.00 0.00
0.00 0.00 0.00 0.00 0.00 0.01 0.01 0.00 0.01 0.00 0.00 0.00 0.00 0.00 0.00 0.00 0.00 0.00 0.00 0.00 0.00 0.00

GFSNIL_prec_precacc12_141.txt.gz
Total_Precipitation_Accumulation
0.00 0.00 0.00 0.00 0.00 0.00 0.00 0.00 0.00 0.00 0.00 0.00 0.00 0.00 0.00 0.00 0.00 0.00 0.00 0.00 0.00 0.00
0.00 0.00 0.00 0.00 0.00 0.00 0.00 0.00 0.00 0.00 0.00 0.00 0.00 0.00 0.01 0.00 0.00 0.00 0.00 0.00 0.00 0.01
0.00 0.00 0.00 0.00 0.00 0.00 0.00 0.00 0.00 0.00 0.00 0.00 0.00 0.00 0.01 0.01 0.01 0.01 0.01 0.01 0.02 0.02
0.00 0.00 0.00 0.00 0.00 0.00 0.00 0.00 0.00 0.00 0.00 0.00 0.00 0.00 0.01 0.01 0.02 0.03 0.05 0.02 0.04 0.06
0.00 0.00 0.00 0.00 0.00 0.00 0.00 0.00 0.00 0.00 0.00 0.00 0.00 0.00 0.00 0.00 0.00 0.00 0.01 0.01 0.02 0.03
0.00 0.00 0.00 0.00 0.00 0.00 0.00 0.00 0.00 0.00 0.00 0.00 0.00 0.00 0.00 0.00 0.00 0.00 0.00 0.00 0.00 0.00
0.00 0.00 0.00 0.00 0.00 0.00 0.00 0.00 0.00 0.00 0.00 0.00 0.00 0.00 0.00 0.00 0.00 0.00 0.00 0.00 0.00 0.00
0.00 0.00 0.00 0.00 0.00 0.00 0.00 0.00 0.00 0.00 0.00 0.00 0.00 0.00 0.00 0.00 0.00 0.00 0.00 0.00 0.00 0.00
0.00 0.00 0.00 0.00 0.00 0.00 0.00 0.00 0.00 0.00 0.00 0.00 0.00 0.00 0.00 0.00 0.00 0.00 0.00 0.00 0.00 0.00
0.00 0.00 0.00 0.00 0.00 0.00 0.00 0.00 0.00 0.00 0.00 0.00 0.00 0.00 0.00 0.00 0.00 0.00 0.00 0.00 0.00 0.00
0.00 0.00 0.00 0.00 0.00 0.00 0.00 0.00 0.00 0.00 0.00 0.00 0.00 0.00 0.00 0.00 0.00 0.00 0.00 0.00 0.00 0.00
0.00 0.00 0.00 0.00 0.00 0.00 0.00 0.00 0.00 0.00 0.00 0.00 0.00 0.00 0.00 0.00 0.00 0.00 0.00 0.00 0.00 0.00
0.00 0.00 0.00 0.00 0.00 0.00 0.00 0.00 0.00 0.00 0.00 0.00 0.00 0.00 0.00 0.00 0.00 0.00 0.00 0.00 0.00 0.00
0.00 0.00 0.00 0.00 0.00 0.00 0.00 0.00 0.01 0.00 0.00 0.00 0.00 0.00 0.00 0.00 0.00 0.00 0.00 0.00 0.00 0.00